FW6434 Weather Reports


Display with metric or nautical units.
time (UTC)temp
F
wind
direction
speed
MPH
gust
MPH
rain 1hr
in
rain 24hr
in
rain mn
in
humidity
%
barometer
mb
20260904030304 63 202 0.0 0.0 0.00 0.00 0.00 84 1016.0
20260904030255 63 202 0.0 0.0 0.00 0.00 0.00 84 1016.0
20260904030229 63 202 0.0 0.0 0.00 0.00 0.00 84 1015.8
20260904030213 63 202 0.0 0.0 0.00 0.00 0.00 84 1015.9
20260904025938 63 202 0.0 0.0 0.00 0.00 0.00 84 1015.8
20260904025709 63 203 0.0 0.0 0.00 0.00 0.00 84 1015.8
20260904025348 63 203 0.0 0.0 0.00 0.00 0.00 84 1015.8
20260904025221 63 202 0.0 0.0 0.00 0.00 0.00 84 1015.9
20260904025150 63 202 0.0 0.0 0.00 0.00 0.00 84 1015.8
20260904025049 63 202 0.0 0.0 0.00 0.00 0.00 84 1015.8
20260904024950 63 203 0.0 0.0 0.00 0.00 0.00 84 1015.8
20260904024935 63 203 0.0 0.0 0.00 0.00 0.00 84 1015.8
20260904024903 63 202 0.0 0.0 0.00 0.00 0.00 84 1015.8
20260904024549 63 203 0.0 0.0 0.00 0.00 0.00 83 1015.8
20260904024501 63 203 0.0 0.0 0.00 0.00 0.00 83 1015.8
20260904024446 63 203 0.0 0.0 0.00 0.00 0.00 83 1015.7
20260904024416 63 203 0.0 0.0 0.00 0.00 0.00 83 1015.9
20260904024049 63 202 0.0 0.0 0.00 0.00 0.00 83 1015.9
20260904023950 63 203 0.0 0.0 0.00 0.00 0.00 83 1016.0
20260904023850 63 203 0.0 0.0 0.00 0.00 0.00 83 1015.9
20260904023721 63 203 0.0 0.0 0.00 0.00 0.00 83 1015.9
20260904023650 63 203 0.0 0.0 0.00 0.00 0.00 83 1015.9
20260904023609 63 201 0.0 0.0 0.00 0.00 0.00 83 1015.8
20260904023602 63 203 0.0 0.0 0.00 0.00 0.00 83 1015.9
20260904023546 63 203 0.0 0.0 0.00 0.00 0.00 83 1015.9
20260904023531 63 201 0.0 0.0 0.00 0.00 0.00 83 1015.9
20260904023502 63 201 0.0 0.0 0.00 0.00 0.00 83 1015.9
20260904023453 63 201 0.0 0.0 0.00 0.00 0.00 83 1015.9
20260904023436 63 201 0.0 0.0 0.00 0.00 0.00 83 1015.8
20260904023421 63 201 0.0 0.0 0.00 0.00 0.00 83 1015.8
20260904022649 63 202 0.0 0.0 0.00 0.00 0.00 83 1016.0
20260904022549 63 202 0.0 0.0 0.00 0.00 0.00 83 1016.1
20260904022448 63 204 0.0 0.0 0.00 0.00 0.00 83 1015.9
20260904022349 63 200 0.0 0.0 0.00 0.00 0.00 83 1015.7
20260904022221 63 201 0.0 0.0 0.00 0.00 0.00 83 1015.8
20260904022136 63 203 0.0 0.0 0.00 0.00 0.00 83 1015.7
20260904022117 63 197 0.0 1.0 0.00 0.00 0.00 82 1015.9
20260904022109 63 204 0.0 0.0 0.00 0.00 0.00 83 1016.0
20260904022053 63 200 0.0 0.0 0.00 0.00 0.00 82 1015.8
20260904022039 63 200 0.0 1.0 0.00 0.00 0.00 82 1016.1
20260904022023 63 197 0.0 1.0 0.00 0.00 0.00 82 1015.9
20260904021757 63 198 0.0 1.0 0.00 0.00 0.00 82 1015.7
20260904021513 63 194 0.0 1.0 0.00 0.00 0.00 82 1015.9
20260904021457 63 200 0.0 1.0 0.00 0.00 0.00 82 1015.8
20260904021430 63 200 0.0 1.0 0.00 0.00 0.00 82 1015.8
20260904021159 63 201 0.0 1.0 0.00 0.00 0.00 82 1015.9
20260904020838 63 199 0.0 1.0 0.00 0.00 0.00 82 1016.1
20260904020722 63 200 0.0 1.0 0.00 0.00 0.00 82 1016.0
20260904020651 63 191 0.0 1.0 0.00 0.00 0.00 82 1015.9
20260904020636 63 203 0.0 0.0 0.00 0.00 0.00 82 1015.6
20260904020622 63 203 0.0 0.0 0.00 0.00 0.00 82 1016.0
20260904020605 63 203 0.0 0.0 0.00 0.00 0.00 82 1015.8
20260904020543 63 200 0.0 0.0 0.00 0.00 0.00 82 1015.9
20260904020527 63 201 0.0 0.0 0.00 0.00 0.00 82 1016.0
20260904020033 63 203 0.0 0.0 0.00 0.00 0.00 82 1016.1
20260904020009 63 203 0.0 0.0 0.00 0.00 0.00 82 1015.7
20260904015940 63 204 0.0 0.0 0.00 0.00 0.00 82 1015.9
20260904015925 63 205 0.0 0.0 0.00 0.00 0.00 82 1015.8
20260904015909 63 205 0.0 0.0 0.00 0.00 0.00 82 1015.7
20260904015854 63 203 0.0 0.0 0.00 0.00 0.00 82 1015.8
20260904015627 63 200 0.0 0.0 0.00 0.00 0.00 82 1015.9
20260904015611 63 199 0.0 0.0 0.00 0.00 0.00 82 1016.0
20260904014846 63 198 0.0 0.0 0.00 0.00 0.00 82 1015.7
20260904014525 63 199 0.0 0.0 0.00 0.00 0.00 82 1015.8
20260904014425 63 195 0.0 0.0 0.00 0.00 0.00 81 1015.7
20260904014407 63 200 0.0 0.0 0.00 0.00 0.00 82 1015.8
20260904014346 63 200 0.0 0.0 0.00 0.00 0.00 82 1015.8
20260904014026 63 199 0.0 0.0 0.00 0.00 0.00 82 1015.9
20260904013926 63 199 0.0 0.0 0.00 0.00 0.00 82 1016.0
20260904013909 63 199 0.0 0.0 0.00 0.00 0.00 82 1015.8
20260904013843 63 199 0.0 0.0 0.00 0.00 0.00 82 1016.0
20260904013525 63 193 0.0 0.0 0.00 0.00 0.00 82 1015.9
20260904013430 63 203 0.0 0.0 0.00 0.00 0.00 82 1016.0
20260904013325 63 203 0.0 0.0 0.00 0.00 0.00 82 1015.8
20260904013209 63 203 0.0 2.0 0.00 0.00 0.00 82 1016.0
20260904013126 63 203 0.0 2.0 0.00 0.00 0.00 82 1015.7
20260904013025 63 203 0.0 2.0 0.00 0.00 0.00 82 1016.1
20260904012924 63 203 0.0 2.0 0.00 0.00 0.00 82 1015.8
20260904012826 63 203 0.0 2.0 0.00 0.00 0.00 82 1016.0
20260904012710 63 203 0.0 2.0 0.00 0.00 0.00 82 1015.7
20260904012625 63 203 0.0 2.0 0.00 0.00 0.00 82 1015.9
20260904012525 63 204 0.0 2.0 0.00 0.00 0.00 82 1015.8
20260904012425 63 205 0.0 2.0 0.00 0.00 0.00 82 1016.0
20260904012325 63 205 0.0 2.0 0.00 0.00 0.00 82 1015.8
20260904012210 63 201 0.0 0.0 0.00 0.00 0.00 82 1016.0
20260904012125 63 201 0.0 0.0 0.00 0.00 0.00 82 1015.9
20260904012101 63 201 0.0 0.0 0.00 0.00 0.00 82 1016.0
20260904012046 63 202 0.0 0.0 0.00 0.00 0.00 82 1016.1
20260904011709 63 204 0.0 0.0 0.00 0.00 0.00 82 1016.2
20260904011628 63 204 0.0 0.0 0.00 0.00 0.00 82 1015.9
20260904011613 63 204 0.0 0.0 0.00 0.00 0.00 82 1015.8
20260904011557 63 204 0.0 0.0 0.00 0.00 0.00 82 1016.2
20260904011310 63 203 0.0 0.0 0.00 0.00 0.00 82 1015.9
20260904011246 63 203 0.0 0.0 0.00 0.00 0.00 82 1015.9
20260904010925 63 203 0.0 0.0 0.00 0.00 0.00 82 1016.0
20260904010843 63 203 0.0 0.0 0.00 0.00 0.00 82 1016.0
20260904010814 63 203 0.0 0.0 0.00 0.00 0.00 82 1016.0
20260904010803 63 203 0.0 0.0 0.00 0.00 0.00 82 1015.9
20260904010747 63 203 0.0 0.0 0.00 0.00 0.00 82 1015.9
20260904010732 63 203 0.0 0.0 0.00 0.00 0.00 82 1015.9
20260904010716 63 203 0.0 0.0 0.00 0.00 0.00 82 1015.8
20260904010443 63 203 0.0 0.0 0.00 0.00 0.00 82 1016.0
20260904010434 63 203 0.0 0.0 0.00 0.00 0.00 82 1016.0
20260904010201 63 203 0.0 0.0 0.00 0.00 0.00 82 1016.0
20260904005713 63 203 0.0 0.0 0.00 0.00 0.00 82 1016.0
20260904005612 63 203 0.0 0.0 0.00 0.00 0.00 82 1016.1
20260904005513 63 203 0.0 0.0 0.00 0.00 0.00 82 1015.9
20260904005413 63 203 0.0 0.0 0.00 0.00 0.00 82 1016.1
20260904005314 63 203 0.0 0.0 0.00 0.00 0.00 82 1016.0
20260904005248 63 203 0.0 0.0 0.00 0.00 0.00 82 1015.7
20260904005231 63 203 0.0 0.0 0.00 0.00 0.00 82 1016.2
20260904005214 63 203 0.0 0.0 0.00 0.00 0.00 82 1015.8
20260904004939 63 203 0.0 0.0 0.00 0.00 0.00 82 1015.7
20260904004712 63 203 0.0 0.0 0.00 0.00 0.00 82 1015.8
20260904004355 63 203 0.0 0.0 0.00 0.00 0.00 82 1016.1
20260904004238 63 203 0.0 0.0 0.00 0.00 0.00 82 1016.1
20260904004154 63 203 0.0 0.0 0.00 0.00 0.00 82 1016.1
20260904004054 63 203 0.0 0.0 0.00 0.00 0.00 82 1016.0
20260904003954 63 203 0.0 0.0 0.00 0.00 0.00 82 1015.8
20260904003855 63 203 0.0 0.0 0.00 0.00 0.00 82 1016.0
20260904003738 63 203 0.0 0.0 0.00 0.00 0.00 82 1016.1
20260904003655 63 203 0.0 0.0 0.00 0.00 0.00 82 1016.1
20260904003555 63 203 0.0 0.0 0.00 0.00 0.00 82 1016.1
20260904003455 63 203 0.0 0.0 0.00 0.00 0.00 82 1016.0
20260904003354 63 203 0.0 0.0 0.00 0.00 0.00 82 1016.0
20260904003238 63 203 0.0 0.0 0.00 0.00 0.00 82 1016.2
20260904003155 63 203 0.0 0.0 0.00 0.00 0.00 82 1016.1
20260904003053 63 203 0.0 0.0 0.00 0.00 0.00 82 1016.0
20260904002955 63 203 0.0 0.0 0.00 0.00 0.00 82 1016.3
20260904002856 63 202 0.0 0.0 0.00 0.00 0.00 82 1016.1
20260904002738 63 203 0.0 0.0 0.00 0.00 0.00 82 1016.2
20260904002654 63 203 0.0 0.0 0.00 0.00 0.00 82 1016.0
20260904002630 63 203 0.0 0.0 0.00 0.00 0.00 82 1016.1
20260904002614 63 203 0.0 0.0 0.00 0.00 0.00 82 1015.9
20260904002239 63 203 0.0 0.0 0.00 0.00 0.00 82 1015.9
20260904002155 63 203 0.0 0.0 0.00 0.00 0.00 82 1016.2
20260904002054 63 203 0.0 0.0 0.00 0.00 0.00 82 1016.1
20260904002040 63 203 0.0 0.0 0.00 0.00 0.00 82 1016.1
20260904002030 63 203 0.0 0.0 0.00 0.00 0.00 82 1015.8
20260904002014 63 203 0.0 0.0 0.00 0.00 0.00 82 1016.3
20260904001958 63 203 0.0 0.0 0.00 0.00 0.00 82 1016.1
20260904001655 63 203 0.0 0.0 0.00 0.00 0.00 82 1016.2
20260904001555 63 203 0.0 0.0 0.00 0.00 0.00 82 1016.2
20260904001455 63 203 0.0 0.0 0.00 0.00 0.00 82 1016.1
20260904001354 63 203 0.0 0.0 0.00 0.00 0.00 82 1016.2
20260904001238 63 203 0.0 0.0 0.00 0.00 0.00 82 1016.3
20260904001154 63 203 0.0 0.0 0.00 0.00 0.00 82 1016.1
20260904001054 63 203 0.0 0.0 0.00 0.00 0.00 82 1016.1
20260904000953 63 203 0.0 0.0 0.00 0.00 0.00 82 1016.2
20260904000854 63 203 0.0 0.0 0.00 0.00 0.00 82 1016.3
20260904000739 63 203 0.0 0.0 0.00 0.00 0.00 82 1016.1
20260904000655 63 203 0.0 0.0 0.00 0.00 0.00 82 1016.0
20260904000555 63 203 0.0 0.0 0.00 0.00 0.00 82 1016.2
20260904000455 63 203 0.0 0.0 0.00 0.00 0.00 82 1016.1
20260904000355 63 203 0.0 0.0 0.00 0.00 0.00 82 1016.2
20260904000240 63 203 0.0 0.0 0.00 0.00 0.00 82 1016.0
20260904000154 63 203 0.0 0.0 0.00 0.00 0.00 82 1015.9
20260904000054 63 203 0.0 0.0 0.00 0.00 0.00 82 1016.1
20260903235953 63 203 0.0 0.0 0.00 0.00 0.00 82 1016.0
20260903235854 63 203 0.0 0.0 0.00 0.00 0.00 82 1016.2
20260903235758 63 203 0.0 0.0 0.00 0.00 0.00 82 1016.3
20260903235740 63 204 0.0 0.0 0.00 0.00 0.00 82 1016.2
20260903235729 63 204 0.0 0.0 0.00 0.00 0.00 82 1016.2
20260903235713 63 204 0.0 0.0 0.00 0.00 0.00 82 1016.2
20260903235658 63 202 0.0 0.0 0.00 0.00 0.00 82 1015.9
20260903235644 63 203 0.0 0.0 0.00 0.00 0.00 82 1016.1
20260903235628 63 203 0.0 0.0 0.00 0.00 0.00 82 1016.3
20260903235401 63 203 0.0 0.0 0.00 0.00 0.00 82 1016.1
20260903235123 63 203 0.0 0.0 0.00 0.00 0.00 82 1016.3
20260903235106 62 203 0.0 0.0 0.00 0.00 0.00 82 1016.4
20260903235037 62 203 0.0 0.0 0.00 0.00 0.00 82 1016.3
20260903234752 62 203 0.0 0.0 0.00 0.00 0.00 82 1016.4
20260903234516 62 203 0.0 1.0 0.00 0.00 0.00 82 1016.4
20260903234238 62 203 0.0 1.0 0.00 0.00 0.00 82 1016.4
20260903234154 62 203 0.0 1.0 0.00 0.00 0.00 82 1016.3
20260903234055 62 204 0.0 1.0 0.00 0.00 0.00 82 1016.6
20260903233954 62 204 0.0 1.0 0.00 0.00 0.00 82 1016.2
20260903233855 62 205 0.0 1.0 0.00 0.00 0.00 82 1016.4
20260903233753 62 205 0.0 1.0 0.00 0.00 0.00 82 1016.2
20260903233739 62 204 0.0 1.0 0.00 0.00 0.00 82 1016.2
20260903233728 62 205 0.0 1.0 0.00 0.00 0.00 82 1016.3
20260903233712 62 205 0.0 1.0 0.00 0.00 0.00 82 1016.1
20260903233656 62 206 0.0 1.0 0.00 0.00 0.00 82 1016.4
20260903233641 62 200 0.0 0.0 0.00 0.00 0.00 82 1016.3
20260903233409 62 205 0.0 0.0 0.00 0.00 0.00 82 1016.1
20260903233055 62 200 0.0 0.0 0.00 0.00 0.00 82 1016.3
20260903233018 62 199 0.0 0.0 0.00 0.00 0.00 82 1016.2
20260903233003 62 199 0.0 0.0 0.00 0.00 0.00 82 1016.2
20260903232933 62 199 0.0 0.0 0.00 0.00 0.00 82 1016.2
20260903232923 62 199 0.0 0.0 0.00 0.00 0.00 82 1016.4
20260903232648 62 197 0.0 0.0 0.00 0.00 0.00 82 1016.4
20260903232632 62 197 0.0 0.0 0.00 0.00 0.00 82 1016.3
20260903232603 62 197 0.0 0.0 0.00 0.00 0.00 82 1016.5
20260903232333 62 196 0.0 0.0 0.00 0.00 0.00 82 1016.4
20260903232319 62 196 0.0 0.0 0.00 0.00 0.00 82 1016.3
20260903231824 62 196 0.0 0.0 0.00 0.00 0.00 82 1016.4
20260903231814 62 196 0.0 0.0 0.00 0.00 0.00 82 1016.2
20260903231758 62 195 0.0 0.0 0.00 0.00 0.00 82 1016.5
20260903231742 62 195 0.0 0.0 0.00 0.00 0.00 82 1016.5
20260903231251 62 195 0.0 0.0 0.00 0.00 0.00 82 1016.4
20260903231154 62 195 0.0 0.0 0.00 0.00 0.00 82 1016.5
20260903231056 62 196 0.0 0.0 0.00 0.00 0.00 82 1016.4
20260903230954 62 195 0.0 0.0 0.00 0.00 0.00 82 1016.5
20260903230854 62 196 0.0 0.0 0.00 0.00 0.00 82 1016.5
20260903230819 62 196 0.0 0.0 0.00 0.00 0.00 82 1016.4
20260903230808 62 195 0.0 0.0 0.00 0.00 0.00 82 1016.7
20260903230752 62 196 0.0 0.0 0.00 0.00 0.00 82 1016.5
20260903230514 62 196 0.0 0.0 0.00 0.00 0.00 82 1016.5
20260903230238 62 196 0.0 0.0 0.00 0.00 0.00 82 1016.3
20260903230154 62 196 0.0 0.0 0.00 0.00 0.00 81 1016.3
20260903230130 62 196 0.0 0.0 0.00 0.00 0.00 81 1016.6
20260903230114 63 196 0.0 0.0 0.00 0.00 0.00 81 1016.5
20260903225740 63 198 0.0 0.0 0.00 0.00 0.00 81 1016.4
20260903225729 63 198 0.0 0.0 0.00 0.00 0.00 81 1016.7
20260903225714 63 198 0.0 0.0 0.00 0.00 0.00 81 1016.4
20260903225354 63 198 0.0 0.0 0.00 0.00 0.00 81 1016.7
20260903225239 63 198 0.0 0.0 0.00 0.00 0.00 81 1016.7
20260903225154 63 198 0.0 0.0 0.00 0.00 0.00 81 1016.6
20260903225055 63 198 0.0 0.0 0.00 0.00 0.00 81 1016.6
20260903225031 63 198 0.0 0.0 0.00 0.00 0.00 81 1016.5
20260903225015 63 198 0.0 0.0 0.00 0.00 0.00 80 1016.6
20260903224738 63 198 0.0 0.0 0.00 0.00 0.00 80 1016.7
20260903224656 63 198 0.0 1.0 0.00 0.00 0.00 80 1016.6
20260903224554 63 198 0.0 1.0 0.00 0.00 0.00 80 1016.5
20260903224454 63 198 0.0 1.0 0.00 0.00 0.00 80 1016.5
20260903224354 63 198 0.0 1.0 0.00 0.00 0.00 80 1016.8
20260903224255 63 197 0.0 2.0 0.00 0.00 0.00 80 1016.8
20260903224239 63 196 0.0 3.0 0.00 0.00 0.00 80 1016.8
20260903224155 63 200 0.0 3.0 0.00 0.00 0.00 80 1016.7
20260903224055 63 200 0.0 3.0 0.00 0.00 0.00 80 1016.7
20260903223954 63 201 0.0 3.0 0.00 0.00 0.00 80 1016.4
20260903223938 63 204 0.0 3.0 0.00 0.00 0.00 80 1016.7
20260903223922 63 196 0.0 3.0 0.00 0.00 0.00 80 1016.7
20260903223909 63 198 0.0 3.0 0.00 0.00 0.00 80 1016.7
20260903223631 63 200 0.0 4.0 0.00 0.00 0.00 80 1016.7
20260903223615 63 200 0.0 4.0 0.00 0.00 0.00 80 1016.5
20260903223241 63 198 0.0 4.0 0.00 0.00 0.00 80 1016.5
20260903223230 62 199 0.0 4.0 0.00 0.00 0.00 80 1016.6
20260903223214 62 204 2.0 4.0 0.00 0.00 0.00 81 1016.4
20260903222853 62 199 0.0 4.0 0.00 0.00 0.00 82 1016.6
20260903222754 62 186 1.0 4.0 0.00 0.00 0.00 82 1016.5
20260903222738 62 249 2.0 4.0 0.00 0.00 0.00 82 1016.5
20260903222654 62 196 0.0 2.0 0.00 0.00 0.00 82 1016.4
20260903222554 62 204 0.0 2.0 0.00 0.00 0.00 83 1016.4
20260903222455 62 199 0.0 2.0 0.00 0.00 0.00 83 1016.6
20260903222355 62 198 0.0 2.0 0.00 0.00 0.00 83 1016.5
20260903222238 62 202 0.0 2.0 0.00 0.00 0.00 83 1016.5
20260903222154 62 203 0.0 2.0 0.00 0.00 0.00 83 1016.7
20260903222054 62 211 1.0 2.0 0.00 0.00 0.00 84 1016.7
20260903221954 61 206 0.0 0.0 0.00 0.00 0.00 84 1016.5
20260903221853 61 200 0.0 0.0 0.00 0.00 0.00 84 1016.6
20260903221739 61 200 0.0 0.0 0.00 0.00 0.00 84 1016.6
20260903221655 61 200 0.0 0.0 0.00 0.00 0.00 85 1016.6
20260903221554 61 203 0.0 1.0 0.00 0.00 0.00 85 1016.7
20260903221454 61 203 0.0 1.0 0.00 0.00 0.00 85 1016.6
20260903221354 61 204 0.0 1.0 0.00 0.00 0.00 86 1016.6
20260903221241 61 204 0.0 1.0 0.00 0.00 0.00 86 1016.7
20260903221231 61 205 0.0 1.0 0.00 0.00 0.00 86 1016.5
20260903221214 61 205 0.0 1.0 0.00 0.00 0.00 86 1016.5
20260903220939 61 201 0.0 1.0 0.00 0.00 0.00 87 1016.5
20260903220910 60 201 0.0 1.0 0.00 0.00 0.00 87 1016.4
20260903220555 60 201 0.0 0.0 0.00 0.00 0.00 87 1016.2
20260903220454 60 201 0.0 0.0 0.00 0.00 0.00 88 1016.5
20260903220354 60 201 0.0 0.0 0.00 0.00 0.00 88 1016.5
20260903220252 60 201 0.0 0.0 0.00 0.00 0.00 88 1016.6
20260903220154 60 201 0.0 0.0 0.00 0.00 0.00 88 1016.7
20260903220054 60 201 0.0 0.0 0.00 0.00 0.00 88 1016.7
20260903215954 60 201 0.0 0.0 0.00 0.00 0.00 88 1016.6
20260903215853 60 201 0.0 0.0 0.00 0.00 0.00 88 1016.7
20260903215738 60 201 0.0 0.0 0.00 0.00 0.00 88 1016.7
20260903215654 60 201 0.0 0.0 0.00 0.00 0.00 89 1016.6
20260903215553 60 201 0.0 0.0 0.00 0.00 0.00 89 1016.4
20260903215454 60 201 0.0 0.0 0.00 0.00 0.00 89 1016.7
20260903215437 60 201 0.0 0.0 0.00 0.00 0.00 89 1016.6
20260903215410 60 201 0.0 0.0 0.00 0.00 0.00 89 1016.4
20260903215120 59 201 0.0 0.0 0.00 0.00 0.00 89 1016.9
20260903215105 59 201 0.0 0.0 0.00 0.00 0.00 89 1016.6
20260903215049 59 201 0.0 0.0 0.00 0.00 0.00 90 1016.7
20260903215018 59 201 0.0 0.0 0.00 0.00 0.00 90 1016.5
20260903215008 59 201 0.0 0.0 0.00 0.00 0.00 90 1016.6
20260903214734 59 201 0.0 0.0 0.00 0.00 0.00 90 1016.6
20260903214239 59 201 0.0 0.0 0.00 0.00 0.00 90 1016.6
20260903214229 59 201 0.0 0.0 0.00 0.00 0.00 90 1016.8
20260903214213 59 201 0.0 0.0 0.00 0.00 0.00 90 1016.5
20260903213857 59 201 0.0 0.0 0.00 0.00 0.00 90 1016.6
20260903213847 59 201 0.0 0.0 0.00 0.00 0.00 90 1016.5
20260903213843 59 201 0.0 0.0 0.00 0.00 0.00 90 1016.6
20260903213819 59 201 0.0 0.0 0.00 0.00 0.00 90 1016.9
20260903213808 59 201 0.0 0.0 0.00 0.00 0.00 90 1016.6
20260903213752 59 201 0.0 0.0 0.00 0.00 0.00 90 1016.6
20260903213737 59 201 0.0 0.0 0.00 0.00 0.00 90 1016.4
20260903213501 59 201 0.0 0.0 0.00 0.00 0.00 90 1016.5
20260903213232 59 201 0.0 0.0 0.00 0.00 0.00 90 1016.8
20260903213217 59 201 0.0 0.0 0.00 0.00 0.00 90 1016.5
20260903213201 59 201 0.0 0.0 0.00 0.00 0.00 90 1016.6
20260903213144 59 201 0.0 0.0 0.00 0.00 0.00 90 1016.7
20260903213129 59 201 0.0 0.0 0.00 0.00 0.00 90 1016.6
20260903212555 59 201 0.0 0.0 0.00 0.00 0.00 90 1016.6
20260903212453 59 201 0.0 0.0 0.00 0.00 0.00 90 1016.6
20260903212437 59 201 0.0 0.0 0.00 0.00 0.00 90 1016.6
20260903212409 58 201 0.0 0.0 0.00 0.00 0.00 90 1016.6
20260903212054 58 201 0.0 0.0 0.00 0.00 0.00 90 1016.7
20260903211954 58 201 0.0 0.0 0.00 0.00 0.00 90 1016.7
20260903211854 58 201 0.0 0.0 0.00 0.00 0.00 90 1016.7
20260903211738 58 201 0.0 0.0 0.00 0.00 0.00 90 1016.7
20260903211654 58 201 0.0 0.0 0.00 0.00 0.00 90 1016.8
20260903211554 58 201 0.0 0.0 0.00 0.00 0.00 90 1016.6
20260903211454 58 201 0.0 0.0 0.00 0.00 0.00 90 1016.7
20260903211354 58 201 0.0 0.0 0.00 0.00 0.00 90 1016.8
20260903211239 58 201 0.0 0.0 0.00 0.00 0.00 90 1016.8
20260903211155 58 201 0.0 0.0 0.00 0.00 0.00 90 1016.8
20260903211055 58 201 0.0 0.0 0.00 0.00 0.00 90 1016.7
20260903210954 58 201 0.0 0.0 0.00 0.00 0.00 90 1016.8
20260903210938 58 201 0.0 0.0 0.00 0.00 0.00 90 1016.6
20260903210909 58 201 0.0 0.0 0.00 0.00 0.00 90 1016.6
20260903210554 58 201 0.0 0.0 0.00 0.00 0.00 90 1016.7
20260903210529 58 201 0.0 0.0 0.00 0.00 0.00 90 1016.7
20260903210513 59 201 0.0 0.0 0.00 0.00 0.00 90 1016.8
20260903210241 59 201 0.0 0.0 0.00 0.00 0.00 90 1016.8
20260903210230 59 201 0.0 0.0 0.00 0.00 0.00 90 1016.7
20260903210215 59 201 0.0 0.0 0.00 0.00 0.00 90 1016.8
20260903205855 59 201 0.0 0.0 0.00 0.00 0.00 90 1016.7
20260903205738 59 201 0.0 0.0 0.00 0.00 0.00 90 1016.7
20260903205654 59 201 0.0 0.0 0.00 0.00 0.00 90 1016.6
20260903205555 59 201 0.0 0.0 0.00 0.00 0.00 90 1016.7
20260903205454 59 201 0.0 0.0 0.00 0.00 0.00 90 1016.5
20260903205354 59 201 0.0 0.0 0.00 0.00 0.00 90 1016.9
20260903205258 59 201 0.0 0.0 0.00 0.00 0.00 90 1016.7
20260903205247 59 201 0.0 0.0 0.00 0.00 0.00 90 1016.7
20260903205241 58 201 0.0 0.0 0.00 0.00 0.00 90 1016.7
20260903205230 58 201 0.0 0.0 0.00 0.00 0.00 90 1016.7
20260903205215 58 201 0.0 0.0 0.00 0.00 0.00 90 1016.5
20260903205159 58 201 0.0 0.0 0.00 0.00 0.00 90 1016.6
20260903205144 58 201 0.0 0.0 0.00 0.00 0.00 90 1016.5
20260903205128 59 201 0.0 0.0 0.00 0.00 0.00 90 1016.7
20260903204554 59 201 0.0 0.0 0.00 0.00 0.00 90 1016.4
20260903204515 59 201 0.0 0.0 0.00 0.00 0.00 90 1016.5
20260903204510 59 201 0.0 0.0 0.00 0.00 0.00 89 1016.5
20260903204503 59 201 0.0 0.0 0.00 0.00 0.00 90 1016.7
20260903204447 59 201 0.0 0.0 0.00 0.00 0.00 90 1016.7
20260903204420 59 201 0.0 0.0 0.00 0.00 0.00 90 1016.5
20260903204409 59 201 0.0 0.0 0.00 0.00 0.00 90 1016.7
20260903204353 59 201 0.0 0.0 0.00 0.00 0.00 90 1016.7
20260903204337 59 201 0.0 0.0 0.00 0.00 0.00 90 1016.7
20260903204321 59 201 0.0 0.0 0.00 0.00 0.00 90 1016.5
20260903204306 59 201 0.0 0.0 0.00 0.00 0.00 90 1016.5
20260903204037 59 201 0.0 0.0 0.00 0.00 0.00 90 1016.6
20260903204022 59 201 0.0 0.0 0.00 0.00 0.00 89 1016.6
20260903204005 59 201 0.0 0.0 0.00 0.00 0.00 89 1016.6
20260903203948 59 201 0.0 0.0 0.00 0.00 0.00 89 1016.8
20260903203932 59 201 0.0 0.0 0.00 0.00 0.00 89 1016.5
20260903203444 59 201 0.0 0.0 0.00 0.00 0.00 89 1016.7
20260903203429 59 201 0.0 0.0 0.00 0.00 0.00 89 1016.8
20260903203413 59 201 0.0 0.0 0.00 0.00 0.00 89 1016.9
20260903203344 59 201 0.0 0.0 0.00 0.00 0.00 89 1016.6
20260903203334 60 201 0.0 0.0 0.00 0.00 0.00 89 1016.6
20260903202606 60 201 0.0 0.0 0.00 0.00 0.00 89 1016.5
20260903202335 60 201 0.0 0.0 0.00 0.00 0.00 89 1016.6
20260903202319 60 201 0.0 0.0 0.00 0.00 0.00 89 1016.6
20260903202306 60 201 0.0 0.0 0.00 0.00 0.00 89 1016.7
20260903202029 60 201 0.0 0.0 0.00 0.00 0.00 89 1016.7
20260903201453 60 201 0.0 0.0 0.00 0.00 0.00 88 1016.7
20260903201404 60 201 0.0 0.0 0.00 0.00 0.00 88 1016.9
20260903201335 60 201 0.0 0.0 0.00 0.00 0.00 88 1016.7
20260903201312 60 201 0.0 0.0 0.00 0.00 0.00 88 1016.9
20260903200954 61 201 0.0 0.0 0.00 0.00 0.00 88 1016.9
20260903200854 61 201 0.0 0.0 0.00 0.00 0.00 88 1016.7
20260903200738 61 201 0.0 0.0 0.00 0.00 0.00 88 1016.8
20260903200655 61 201 0.0 0.0 0.00 0.00 0.00 88 1016.9
20260903200554 61 201 0.0 0.0 0.00 0.00 0.00 88 1016.8
20260903200454 61 201 0.0 0.0 0.00 0.00 0.00 88 1016.9
20260903200354 61 201 0.0 0.0 0.00 0.00 0.00 88 1016.6
20260903200238 61 201 0.0 0.0 0.00 0.00 0.00 88 1016.9
20260903200154 61 201 0.0 0.0 0.00 0.00 0.00 88 1016.8
20260903200054 61 201 0.0 0.0 0.00 0.00 0.00 88 1016.8
20260903195955 61 201 0.0 0.0 0.00 0.00 0.00 88 1016.7
20260903195854 61 201 0.0 0.0 0.00 0.00 0.00 87 1017.0
20260903195742 61 201 0.0 0.0 0.00 0.00 0.00 87 1016.7
20260903195731 61 201 0.0 0.0 0.00 0.00 0.00 87 1016.6
20260903195716 61 201 0.0 0.0 0.00 0.00 0.00 87 1016.6
20260903195355 61 201 0.0 0.0 0.00 0.00 0.00 86 1017.0
20260903195336 61 201 0.0 0.0 0.00 0.00 0.00 85 1016.6
20260903195315 61 201 0.0 0.0 0.00 0.00 0.00 86 1016.8
20260903195306 61 201 0.0 0.0 0.00 0.00 0.00 86 1016.8
20260903195248 61 201 0.0 0.0 0.00 0.00 0.00 86 1016.8
20260903195011 61 201 0.0 0.0 0.00 0.00 0.00 85 1016.8
20260903194956 61 201 0.0 0.0 0.00 0.00 0.00 85 1016.6
20260903194656 61 201 0.0 0.0 0.00 0.00 0.00 85 1017.0
20260903194554 61 201 0.0 0.0 0.00 0.00 0.00 85 1016.7
20260903194454 61 201 0.0 0.0 0.00 0.00 0.00 85 1016.9
20260903194354 61 201 0.0 0.0 0.00 0.00 0.00 85 1016.8
20260903194325 61 201 0.0 0.0 0.00 0.00 0.00 85 1016.7
20260903194314 61 201 0.0 0.0 0.00 0.00 0.00 85 1016.9
20260903193954 61 201 0.0 0.0 0.00 0.00 0.00 85 1016.7
20260903193854 61 201 0.0 0.0 0.00 0.00 0.00 85 1017.0
20260903193754 61 200 0.0 0.0 0.00 0.00 0.00 85 1016.8
20260903193738 61 201 0.0 0.0 0.00 0.00 0.00 85 1016.8
20260903193655 61 201 0.0 0.0 0.00 0.00 0.00 85 1016.9
20260903193554 61 200 0.0 0.0 0.00 0.00 0.00 85 1016.8
20260903193454 61 200 0.0 0.0 0.00 0.00 0.00 85 1016.9
20260903193354 61 200 0.0 0.0 0.00 0.00 0.00 85 1016.7
20260903193237 61 200 0.0 0.0 0.00 0.00 0.00 85 1017.0
20260903193154 61 200 0.0 0.0 0.00 0.00 0.00 84 1016.7
20260903193055 61 200 0.0 0.0 0.00 0.00 0.00 84 1016.8
20260903192954 61 200 0.0 0.0 0.00 0.00 0.00 84 1016.9
20260903192855 61 200 0.0 0.0 0.00 0.00 0.00 84 1016.8
20260903192825 61 200 0.0 0.0 0.00 0.00 0.00 84 1016.9
20260903192815 61 200 0.0 0.0 0.00 0.00 0.00 84 1017.0
20260903192522 62 200 0.0 0.0 0.00 0.00 0.00 83 1017.1
20260903192517 62 200 0.0 0.0 0.00 0.00 0.00 83 1017.1
20260903192510 61 200 0.0 0.0 0.00 0.00 0.00 84 1016.7
20260903192454 61 200 0.0 0.0 0.00 0.00 0.00 84 1016.8
20260903192427 61 200 0.0 0.0 0.00 0.00 0.00 84 1017.1
20260903192417 61 200 0.0 0.0 0.00 0.00 0.00 84 1016.9
20260903192403 61 200 0.0 0.0 0.00 0.00 0.00 84 1016.9
20260903191920 62 200 0.0 0.0 0.00 0.00 0.00 84 1017.0
20260903191850 62 200 0.0 0.0 0.00 0.00 0.00 84 1017.2
20260903191839 62 200 0.0 0.0 0.00 0.00 0.00 84 1017.2
20260903191824 62 200 0.0 0.0 0.00 0.00 0.00 84 1016.9
20260903191808 62 200 0.0 0.0 0.00 0.00 0.00 84 1017.1
20260903191532 62 200 0.0 0.0 0.00 0.00 0.00 83 1017.1
20260903191305 62 200 0.0 0.0 0.00 0.00 0.00 83 1017.0
20260903191250 62 200 0.0 0.0 0.00 0.00 0.00 83 1017.0
20260903191235 62 200 0.0 0.0 0.00 0.00 0.00 83 1016.8
20260903191219 62 200 0.0 0.0 0.00 0.00 0.00 83 1016.9
20260903191203 62 200 0.0 0.0 0.00 0.00 0.00 83 1017.1
20260903190714 62 199 0.0 0.0 0.00 0.00 0.00 83 1017.2
20260903190354 62 199 0.0 0.0 0.00 0.00 0.00 83 1016.9
20260903190239 62 199 0.0 0.0 0.00 0.00 0.00 83 1016.9
20260903190154 62 199 0.0 0.0 0.00 0.00 0.00 83 1017.0
20260903190129 62 199 0.0 0.0 0.00 0.00 0.00 83 1017.1
20260903190113 62 199 0.0 0.0 0.00 0.00 0.00 83 1017.1
20260903185738 62 199 0.0 0.0 0.00 0.00 0.00 83 1017.0
20260903185654 62 199 0.0 0.0 0.00 0.00 0.00 83 1016.9
20260903185623 62 199 0.0 0.0 0.00 0.00 0.00 83 1017.2
20260903185535 62 199 0.0 0.0 0.00 0.00 0.00 83 1017.3
20260903185519 62 199 0.0 0.0 0.00 0.00 0.00 83 1017.0
20260903185238 62 199 0.0 0.0 0.00 0.00 0.00 82 1016.9
20260903185155 62 199 0.0 0.0 0.00 0.00 0.00 83 1017.1
20260903185054 62 199 0.0 0.0 0.00 0.00 0.00 82 1017.0
20260903184954 62 199 0.0 0.0 0.00 0.00 0.00 83 1017.0
20260903184854 62 199 0.0 0.0 0.00 0.00 0.00 82 1017.0
20260903184754 62 199 0.0 0.0 0.00 0.00 0.00 83 1017.0
20260903184738 62 199 0.0 0.0 0.00 0.00 0.00 83 1017.2
20260903184654 62 198 0.0 0.0 0.00 0.00 0.00 82 1017.2
20260903184554 62 198 0.0 0.0 0.00 0.00 0.00 83 1016.9
20260903184526 64 196 0.0 0.0 0.00 0.00 0.00 80 1017.2
20260903184518 63 198 0.0 0.0 0.00 0.00 0.00 82 1017.1
20260903184503 63 198 0.0 0.0 0.00 0.00 0.00 82 1017.2
20260903184434 62 198 0.0 0.0 0.00 0.00 0.00 82 1017.0
20260903184423 62 198 0.0 0.0 0.00 0.00 0.00 81 1017.0
20260903184408 63 198 0.0 0.0 0.00 0.00 0.00 81 1017.1
20260903184352 63 198 0.0 0.0 0.00 0.00 0.00 81 1017.1
20260903184336 63 198 0.0 0.0 0.00 0.00 0.00 81 1017.2
20260903184102 63 196 0.0 0.0 0.00 0.00 0.00 81 1017.1
20260903183832 63 195 0.0 0.0 0.00 0.00 0.00 81 1017.4
20260903183817 63 195 0.0 0.0 0.00 0.00 0.00 81 1017.3
20260903183801 63 195 0.0 0.0 0.00 0.00 0.00 81 1017.3
20260903183726 63 196 0.0 0.0 0.00 0.00 0.00 81 1017.1
20260903183715 63 195 0.0 0.0 0.00 0.00 0.00 81 1017.2
20260903183659 64 195 0.0 0.0 0.00 0.00 0.00 81 1017.4
20260903183643 64 197 0.0 0.0 0.00 0.00 0.00 81 1017.1
20260903183627 64 197 0.0 0.0 0.00 0.00 0.00 81 1017.1
20260903183611 64 196 0.0 0.0 0.00 0.00 0.00 80 1017.2
20260903183342 64 196 0.0 0.0 0.00 0.00 0.00 80 1017.3
20260903182408 64 268 0.0 0.0 0.00 0.00 0.00 80 1017.2
20260903182100 64 196 0.0 0.0 0.00 0.00 0.00 80 1017.2
20260903182038 64 196 0.0 0.0 0.00 0.00 0.00 80 1017.1
20260903182015 64 196 0.0 0.0 0.00 0.00 0.00 80 1017.2
20260903181738 64 196 0.0 0.0 0.00 0.00 0.00 80 1017.1
20260903181703 64 196 0.0 0.0 0.00 0.00 0.00 79 1016.9
20260903181555 64 196 0.0 0.0 0.00 0.00 0.00 79 1017.0
20260903181454 65 196 0.0 0.0 0.00 0.00 0.00 79 1017.1
20260903181355 65 196 0.0 0.0 0.00 0.00 0.00 79 1017.1
20260903181240 65 196 0.0 0.0 0.00 0.00 0.00 79 1017.0
20260903181230 65 196 0.0 0.0 0.00 0.00 0.00 79 1017.0
20260903181214 65 196 0.0 0.0 0.00 0.00 0.00 79 1017.0
20260903180855 65 196 0.0 0.0 0.00 0.00 0.00 79 1017.0
20260903180758 66 197 0.0 0.0 0.00 0.00 0.00 74 1017.2
20260903180740 66 196 0.0 0.0 0.00 0.00 0.00 78 1017.2
20260903180733 66 197 0.0 0.0 0.00 0.00 0.00 76 1017.1
20260903180725 66 196 0.0 0.0 0.00 0.00 0.00 78 1017.2
20260903180710 66 197 0.0 0.0 0.00 0.00 0.00 78 1017.2
20260903180653 66 196 0.0 0.0 0.00 0.00 0.00 77 1017.0
20260903180637 66 197 0.0 0.0 0.00 0.00 0.00 77 1017.1
20260903180620 66 197 0.0 0.0 0.00 0.00 0.00 76 1017.1
20260903180354 66 197 0.0 0.0 0.00 0.00 0.00 76 1017.0
20260903180130 66 197 0.0 0.0 0.00 0.00 0.00 75 1017.0
20260903180114 66 197 0.0 0.0 0.00 0.00 0.00 75 1016.9
20260903180058 66 199 0.0 0.0 0.00 0.00 0.00 75 1017.1
20260903180043 66 197 0.0 0.0 0.00 0.00 0.00 74 1017.2
20260903175814 66 197 0.0 0.0 0.00 0.00 0.00 74 1016.9
20260903175529 66 197 0.0 0.0 0.00 0.00 0.00 74 1017.0
20260903175514 66 197 0.0 0.0 0.00 0.00 0.00 74 1017.2
20260903175239 66 197 0.0 0.0 0.00 0.00 0.00 74 1017.2
20260903175218 66 197 0.0 0.0 0.00 0.00 0.00 75 1017.0
20260903175213 66 197 0.0 0.0 0.00 0.00 0.00 74 1017.1
20260903175206 66 197 0.0 0.0 0.00 0.00 0.00 75 1016.9
20260903175149 66 197 0.0 0.0 0.00 0.00 0.00 75 1017.0
20260903175116 66 197 0.0 0.0 0.00 0.00 0.00 75 1016.9
20260903175054 66 197 0.0 0.0 0.00 0.00 0.00 75 1016.9
20260903175037 66 197 0.0 0.0 0.00 0.00 0.00 75 1017.0
20260903174808 66 197 0.0 0.0 0.00 0.00 0.00 76 1017.1
20260903174752 66 197 0.0 0.0 0.00 0.00 0.00 76 1017.3
20260903174735 66 197 0.0 0.0 0.00 0.00 0.00 75 1017.0
20260903174720 66 197 0.0 0.0 0.00 0.00 0.00 75 1017.0
20260903174652 66 197 0.0 0.0 0.00 0.00 0.00 75 1017.0
20260903174200 66 197 0.0 0.0 0.00 0.00 0.00 74 1017.0
20260903174144 66 196 0.0 0.0 0.00 0.00 0.00 74 1017.1
20260903174128 66 197 0.0 0.0 0.00 0.00 0.00 74 1017.1
20260903173639 67 198 0.0 0.0 0.00 0.00 0.00 75 1017.0
20260903173629 66 197 0.0 0.0 0.00 0.00 0.00 74 1016.8
20260903173613 66 196 0.0 0.0 0.00 0.00 0.00 74 1017.0
20260903173555 66 196 0.0 0.0 0.00 0.00 0.00 74 1016.9
20260903173540 67 197 0.0 0.0 0.00 0.00 0.00 74 1017.0
20260903173528 67 197 0.0 0.0 0.00 0.00 0.00 75 1017.0
20260903173518 67 197 0.0 0.0 0.00 0.00 0.00 75 1017.0
20260903173502 67 196 0.0 0.0 0.00 0.00 0.00 75 1016.9
20260903173445 67 196 0.0 0.0 0.00 0.00 0.00 75 1017.1
20260903173429 67 196 0.0 0.0 0.00 0.00 0.00 75 1017.0
20260903173155 67 196 0.0 0.0 0.00 0.00 0.00 75 1017.1
20260903173145 67 196 0.0 0.0 0.00 0.00 0.00 75 1017.1
20260903172642 67 196 0.0 0.0 0.00 0.00 0.00 75 1017.1
20260903172625 67 196 0.0 0.0 0.00 0.00 0.00 75 1017.0
20260903172056 67 195 0.0 0.0 0.00 0.00 0.00 74 1017.0
20260903172044 68 194 0.0 0.0 0.00 0.00 0.00 73 1016.9
20260903172033 68 194 0.0 0.0 0.00 0.00 0.00 74 1017.0
20260903172018 68 194 0.0 0.0 0.00 0.00 0.00 74 1016.9
20260903172001 68 194 0.0 0.0 0.00 0.00 0.00 73 1016.8
20260903171738 68 194 0.0 0.0 0.00 0.00 0.00 73 1016.8
20260903171727 68 194 0.0 0.0 0.00 0.00 0.00 73 1016.9
20260903171712 68 194 0.0 0.0 0.00 0.00 0.00 73 1017.1
20260903171651 68 194 0.0 0.0 0.00 0.00 0.00 73 1016.8
20260903171635 68 194 0.0 0.0 0.00 0.00 0.00 72 1017.0
20260903171619 68 194 0.0 0.0 0.00 0.00 0.00 73 1016.9
20260903171352 68 194 0.0 0.0 0.00 0.00 0.00 72 1017.1
20260903171335 68 194 0.0 0.0 0.00 0.00 0.00 73 1017.0
20260903170741 68 107 0.0 0.0 0.00 0.00 0.00 73 1017.1
20260903170641 68 192 0.0 0.0 0.00 0.00 0.00 72 1017.0
20260903170541 68 195 0.0 0.0 0.00 0.00 0.00 72 1016.9
20260903170452 68 192 0.0 0.0 0.00 0.00 0.00 73 1016.9
20260903170436 68 196 0.0 0.0 0.00 0.00 0.00 72 1016.8
20260903170413 68 199 0.0 0.0 0.00 0.00 0.00 73 1017.0
20260903170357 68 196 0.0 0.0 0.00 0.00 0.00 72 1016.9
20260903170341 68 192 0.0 0.0 0.00 0.00 0.00 73 1016.9
20260903170105 69 196 0.0 0.0 0.00 0.00 0.00 72 1017.1
20260903170039 69 194 0.0 0.0 0.00 0.00 0.00 73 1016.9
20260903170022 69 195 0.0 0.0 0.00 0.00 0.00 72 1017.0
20260903170006 69 198 0.0 0.0 0.00 0.00 0.00 72 1017.1
20260903165501 69 195 0.0 0.0 0.00 0.00 0.00 72 1016.9
20260903164918 69 194 0.0 0.0 0.00 0.00 0.00 71 1017.0
20260903164819 69 196 0.0 0.0 0.00 0.00 0.00 71 1016.8
20260903164716 69 196 0.0 0.0 0.00 0.00 0.00 71 1016.8
20260903164318 69 197 0.0 0.0 0.00 0.00 0.00 71 1017.1
20260903164301 69 195 0.0 0.0 0.00 0.00 0.00 70 1016.9
20260903163939 69 195 0.0 0.0 0.00 0.00 0.00 70 1016.9
20260903163847 69 192 0.0 0.0 0.00 0.00 0.00 69 1016.9
20260903163842 69 194 0.0 0.0 0.00 0.00 0.00 70 1017.0
20260903163817 69 194 0.0 0.0 0.00 0.00 0.00 69 1017.0
20260903163801 69 188 0.0 0.0 0.00 0.00 0.00 69 1016.8
20260903163744 69 194 0.0 0.0 0.00 0.00 0.00 69 1017.0
20260903163729 69 192 0.0 0.0 0.00 0.00 0.00 69 1016.8
20260903163451 69 192 0.0 0.0 0.00 0.00 0.00 69 1016.9
20260903163140 69 187 0.0 0.0 0.00 0.00 0.00 69 1016.8
20260903163039 70 188 0.0 0.0 0.00 0.00 0.00 69 1016.6
20260903162935 70 196 0.0 0.0 0.00 0.00 0.00 69 1016.8
20260903162913 70 198 0.0 0.0 0.00 0.00 0.00 69 1016.9
20260903162848 70 199 0.0 0.0 0.00 0.00 0.00 69 1016.8
20260903162832 70 199 0.0 0.0 0.00 0.00 0.00 68 1016.9
20260903162815 70 191 0.0 1.0 0.00 0.00 0.00 68 1016.6
20260903162759 70 191 0.0 1.0 0.00 0.00 0.00 68 1016.6
20260903162743 70 190 0.0 1.0 0.00 0.00 0.00 68 1016.7
20260903162516 70 192 0.0 1.0 0.00 0.00 0.00 68 1016.6
20260903161934 70 191 0.0 1.0 0.00 0.00 0.00 68 1016.8
20260903161838 70 187 0.0 1.0 0.00 0.00 0.00 68 1016.9
20260903161813 70 186 0.0 1.0 0.00 0.00 0.00 67 1016.9
20260903161756 70 196 0.0 1.0 0.00 0.00 0.00 67 1017.0
20260903161446 71 203 0.0 1.0 0.00 0.00 0.00 66 1016.7
20260903161439 70 203 0.0 1.0 0.00 0.00 0.00 67 1016.8
20260903161422 70 200 0.0 1.0 0.00 0.00 0.00 67 1016.9
20260903161359 70 195 0.0 1.0 0.00 0.00 0.00 67 1016.7
20260903161342 70 193 0.0 1.0 0.00 0.00 0.00 67 1016.7
20260903161118 70 190 0.0 1.0 0.00 0.00 0.00 67 1016.7
20260903161103 70 192 0.0 1.0 0.00 0.00 0.00 67 1017.0
20260903160818 70 195 0.0 1.0 0.00 0.00 0.00 67 1016.7
20260903160801 70 217 1.0 1.0 0.00 0.00 0.00 66 1017.0
20260903160744 70 194 0.0 1.0 0.00 0.00 0.00 67 1016.9
20260903160723 70 194 0.0 1.0 0.00 0.00 0.00 67 1016.8
20260903160440 71 194 0.0 1.0 0.00 0.00 0.00 67 1016.9
20260903160422 71 190 0.0 1.0 0.00 0.00 0.00 67 1016.7
20260903160147 71 149 0.0 1.0 0.00 0.00 0.00 67 1016.6
20260903160130 71 197 0.0 1.0 0.00 0.00 0.00 66 1016.8
20260903160106 71 203 0.0 1.0 0.00 0.00 0.00 66 1016.7
20260903155535 71 202 0.0 1.0 0.00 0.00 0.00 66 1016.9
20260903155435 71 202 0.0 1.0 0.00 0.00 0.00 65 1016.7
20260903155336 71 187 0.0 1.0 0.00 0.00 0.00 65 1016.9
20260903155235 71 193 0.0 1.0 0.00 0.00 0.00 65 1016.9
20260903155136 71 192 0.0 1.0 0.00 0.00 0.00 66 1016.9
20260903155035 71 176 0.0 1.0 0.00 0.00 0.00 65 1016.7
20260903154935 71 192 0.0 1.0 0.00 0.00 0.00 66 1016.9
20260903154835 71 188 0.0 1.0 0.00 0.00 0.00 65 1016.8
20260903154811 71 196 0.0 1.0 0.00 0.00 0.00 66 1017.0
20260903154755 71 213 0.0 1.0 0.00 0.00 0.00 66 1016.7
20260903154435 71 193 0.0 1.0 0.00 0.00 0.00 66 1016.9
20260903154335 71 192 0.0 1.0 0.00 0.00 0.00 66 1016.9
20260903154236 71 192 0.0 1.0 0.00 0.00 0.00 66 1016.9
20260903154136 71 189 0.0 1.0 0.00 0.00 0.00 66 1016.8
20260903154040 71 171 1.0 1.0 0.00 0.00 0.00 66 1016.8
20260903154023 71 181 0.0 1.0 0.00 0.00 0.00 65 1016.6
20260903154006 71 195 0.0 1.0 0.00 0.00 0.00 65 1017.0
20260903153736 71 199 0.0 1.0 0.00 0.00 0.00 65 1017.1
20260903153636 71 195 0.0 1.0 0.00 0.00 0.00 65 1016.9
20260903153537 71 195 0.0 1.0 0.00 0.00 0.00 65 1017.1
20260903153435 71 193 0.0 2.0 0.00 0.00 0.00 65 1016.8
20260903153335 71 191 0.0 2.0 0.00 0.00 0.00 65 1017.0
20260903153235 71 192 0.0 2.0 0.00 0.00 0.00 66 1016.8
20260903153135 71 192 0.0 2.0 0.00 0.00 0.00 65 1017.0
20260903153036 71 192 0.0 2.0 0.00 0.00 0.00 66 1017.0
20260903152936 71 192 0.0 2.0 0.00 0.00 0.00 66 1017.1
20260903152911 73 196 0.0 1.0 0.00 0.00 0.00 64 1017.0
20260903152906 72 194 0.0 1.0 0.00 0.00 0.00 66 1016.9
20260903152859 73 198 0.0 3.0 0.00 0.00 0.00 65 1016.9
20260903152855 73 200 0.0 3.0 0.00 0.00 0.00 64 1016.9
20260903152847 71 187 0.0 2.0 0.00 0.00 0.00 66 1016.9
20260903152822 71 200 0.0 2.0 0.00 0.00 0.00 66 1017.0
20260903152805 71 195 0.0 2.0 0.00 0.00 0.00 65 1017.2
20260903152750 71 188 0.0 2.0 0.00 0.00 0.00 65 1016.9
20260903152734 72 192 0.0 2.0 0.00 0.00 0.00 65 1017.0
20260903152246 72 191 0.0 2.0 0.00 0.00 0.00 65 1016.9
20260903152231 72 188 0.0 2.0 0.00 0.00 0.00 66 1017.1
20260903152215 72 193 0.0 2.0 0.00 0.00 0.00 66 1017.1
20260903151939 72 193 0.0 1.0 0.00 0.00 0.00 66 1017.2
20260903151915 72 190 0.0 1.0 0.00 0.00 0.00 65 1016.9
20260903151651 73 191 0.0 2.0 0.00 0.00 0.00 64 1017.1
20260903151645 73 194 0.0 1.0 0.00 0.00 0.00 63 1017.2
20260903151640 72 196 0.0 1.0 0.00 0.00 0.00 65 1016.8
20260903151624 72 210 0.0 1.0 0.00 0.00 0.00 65 1017.0
20260903151608 72 193 0.0 1.0 0.00 0.00 0.00 65 1016.8
20260903151553 72 190 0.0 1.0 0.00 0.00 0.00 65 1016.9
20260903151530 72 188 0.0 1.0 0.00 0.00 0.00 65 1017.1
20260903151034 72 152 1.0 1.0 0.00 0.00 0.00 65 1016.9
20260903151018 72 164 1.0 1.0 0.00 0.00 0.00 65 1017.1
20260903150954 72 194 0.0 1.0 0.00 0.00 0.00 66 1016.9
20260903150938 72 204 0.0 1.0 0.00 0.00 0.00 66 1017.0
20260903150917 72 198 0.0 1.0 0.00 0.00 0.00 66 1017.1
20260903150641 72 198 0.0 1.0 0.00 0.00 0.00 66 1016.9
20260903150619 72 194 0.0 1.0 0.00 0.00 0.00 66 1016.9
20260903150351 72 194 0.0 1.0 0.00 0.00 0.00 66 1016.8
20260903150335 72 193 0.0 1.0 0.00 0.00 0.00 66 1017.0
20260903150320 72 196 0.0 1.0 0.00 0.00 0.00 66 1017.0
20260903150303 72 183 0.0 1.0 0.00 0.00 0.00 66 1016.8
20260903150239 72 179 0.0 1.0 0.00 0.00 0.00 66 1017.2
20260903150222 72 192 0.0 1.0 0.00 0.00 0.00 67 1017.0
20260903150206 72 194 0.0 1.0 0.00 0.00 0.00 66 1017.0
20260903150150 72 193 0.0 1.0 0.00 0.00 0.00 66 1016.9
20260903145905 72 118 0.0 1.0 0.00 0.00 0.00 67 1017.0
20260903145849 72 193 0.0 1.0 0.00 0.00 0.00 66 1016.9
20260903145833 72 192 0.0 3.0 0.00 0.00 0.00 66 1017.1
20260903145817 72 168 0.0 3.0 0.00 0.00 0.00 66 1016.8
20260903145801 73 201 0.0 3.0 0.00 0.00 0.00 66 1016.9
20260903145307 73 160 0.0 3.0 0.00 0.00 0.00 66 1017.2
20260903145252 73 199 0.0 3.0 0.00 0.00 0.00 65 1017.1
20260903145235 73 196 0.0 3.0 0.00 0.00 0.00 65 1016.9
20260903145219 73 202 0.0 3.0 0.00 0.00 0.00 65 1016.9
20260903145201 73 200 0.0 3.0 0.00 0.00 0.00 64 1016.9
20260903144936 73 202 0.0 3.0 0.00 0.00 0.00 64 1017.2
20260903144919 73 196 0.0 1.0 0.00 0.00 0.00 64 1017.0
20260903144643 73 194 0.0 1.0 0.00 0.00 0.00 64 1017.3
20260903144624 73 196 0.0 1.0 0.00 0.00 0.00 64 1017.0
20260903144359 73 203 0.0 2.0 0.00 0.00 0.00 64 1017.1
20260903144343 73 209 0.0 2.0 0.00 0.00 0.00 64 1017.1
20260903144326 73 197 0.0 2.0 0.00 0.00 0.00 64 1017.2
20260903144310 73 192 0.0 2.0 0.00 0.00 0.00 64 1017.0
20260903144253 73 191 0.0 2.0 0.00 0.00 0.00 64 1017.1
20260903143808 73 201 0.0 2.0 0.00 0.00 0.00 64 1016.8
20260903143530 73 199 0.0 2.0 0.00 0.00 0.00 64 1017.0
20260903143506 73 204 0.0 2.0 0.00 0.00 0.00 64 1017.1
20260903143451 73 198 0.0 2.0 0.00 0.00 0.00 64 1017.1
20260903143435 73 124 0.0 2.0 0.00 0.00 0.00 64 1016.9
20260903143159 73 175 0.0 1.0 0.00 0.00 0.00 64 1017.1
20260903143137 73 196 0.0 1.0 0.00 0.00 0.00 64 1017.2
20260903142901 73 189 0.0 1.0 0.00 0.00 0.00 63 1017.1
20260903142845 73 195 0.0 1.0 0.00 0.00 0.00 64 1017.2
20260903142830 73 200 0.0 2.0 0.00 0.00 0.00 63 1017.1
20260903142602 73 196 0.0 2.0 0.00 0.00 0.00 64 1017.2
20260903142545 73 194 0.0 2.0 0.00 0.00 0.00 64 1017.1
20260903142310 73 181 0.0 2.0 0.00 0.00 0.00 64 1017.5
20260903141823 73 191 0.0 2.0 0.00 0.00 0.00 65 1017.5
20260903141806 73 159 0.0 2.0 0.00 0.00 0.00 64 1017.4
20260903141529 73 191 0.0 2.0 0.00 0.00 0.00 64 1017.1
20260903141248 73 194 0.0 1.0 0.00 0.00 0.00 63 1017.2
20260903141021 73 196 0.0 1.0 0.00 0.00 0.00 63 1017.4
20260903140746 73 184 0.0 1.0 0.00 0.00 0.00 63 1017.3
20260903140259 73 195 0.0 2.0 0.00 0.00 0.00 63 1017.3
20260903140243 73 208 0.0 2.0 0.00 0.00 0.00 62 1017.1
20260903135923 73 193 0.0 2.0 0.00 0.00 0.00 62 1017.0
20260903135823 74 196 0.0 2.0 0.00 0.00 0.00 62 1017.3
20260903135724 74 183 1.0 2.0 0.00 0.00 0.00 61 1017.3
20260903135523 74 196 0.0 2.0 0.00 0.00 0.00 60 1017.1
20260903135506 74 194 0.0 2.0 0.00 0.00 0.00 61 1017.3
20260903135451 74 213 0.0 2.0 0.00 0.00 0.00 61 1017.4
20260903135223 74 194 0.0 2.0 0.00 0.00 0.00 62 1017.2
20260903135158 74 199 0.0 2.0 0.00 0.00 0.00 62 1017.4
20260903135142 74 215 1.0 2.0 0.00 0.00 0.00 61 1017.3
20260903134825 74 192 0.0 2.0 0.00 0.00 0.00 61 1017.4
20260903134724 74 213 0.0 2.0 0.00 0.00 0.00 61 1017.0
20260903134623 74 198 0.0 2.0 0.00 0.00 0.00 60 1017.2
20260903134527 74 194 0.0 2.0 0.00 0.00 0.00 60 1017.3
20260903134523 74 196 0.0 2.0 0.00 0.00 0.00 61 1017.0
20260903134507 74 202 0.0 2.0 0.00 0.00 0.00 60 1017.2
20260903134451 74 196 0.0 2.0 0.00 0.00 0.00 60 1017.2
20260903134434 74 194 0.0 2.0 0.00 0.00 0.00 60 1017.3
20260903134124 74 203 0.0 4.0 0.00 0.00 0.00 59 1017.2
20260903134023 74 198 0.0 4.0 0.00 0.00 0.00 59 1017.2
20260903133922 74 188 0.0 4.0 0.00 0.00 0.00 59 1017.2
20260903133823 74 196 0.0 4.0 0.00 0.00 0.00 59 1017.4
20260903133723 74 198 0.0 4.0 0.00 0.00 0.00 60 1017.2
20260903133700 74 199 0.0 4.0 0.00 0.00 0.00 60 1017.0
20260903133644 74 198 0.0 4.0 0.00 0.00 0.00 60 1017.1
20260903133323 74 213 0.0 4.0 0.00 0.00 0.00 58 1017.3
20260903133223 75 179 2.0 4.0 0.00 0.00 0.00 58 1017.1
20260903133159 75 199 0.0 3.0 0.00 0.00 0.00 59 1017.1
20260903133143 75 205 0.0 2.0 0.00 0.00 0.00 59 1017.3
20260903132823 74 196 0.0 8.0 0.00 0.00 0.00 59 1017.3
20260903132723 75 195 0.0 8.0 0.00 0.00 0.00 59 1017.1
20260903132624 75 130 0.0 8.0 0.00 0.00 0.00 60 1017.0
20260903132524 74 200 0.0 8.0 0.00 0.00 0.00 60 1017.4
20260903132423 74 192 0.0 8.0 0.00 0.00 0.00 60 1017.0
20260903132324 74 199 0.0 8.0 0.00 0.00 0.00 60 1017.2
20260903132223 74 196 0.0 8.0 0.00 0.00 0.00 61 1017.1
20260903132123 74 199 0.0 8.0 0.00 0.00 0.00 60 1017.1
20260903132023 74 216 4.0 8.0 0.00 0.00 0.00 60 1017.0
20260903131923 74 213 1.0 3.0 0.00 0.00 0.00 61 1017.0
20260903131823 74 183 0.0 2.0 0.00 0.00 0.00 61 1017.3
20260903131725 74 196 0.0 2.0 0.00 0.00 0.00 61 1016.9
20260903131623 74 197 0.0 2.0 0.00 0.00 0.00 62 1017.3
20260903131600 74 192 1.0 2.0 0.00 0.00 0.00 63 1017.4
20260903131544 74 203 0.0 2.0 0.00 0.00 0.00 62 1017.5
20260903131527 74 191 0.0 1.0 0.00 0.00 0.00 62 1017.3
20260903131301 74 203 0.0 1.0 0.00 0.00 0.00 62 1017.2
20260903131245 74 198 0.0 1.0 0.00 0.00 0.00 62 1017.4
20260903131228 74 199 0.0 1.0 0.00 0.00 0.00 62 1017.3
20260903130952 74 194 0.0 4.0 0.00 0.00 0.00 63 1017.3
20260903130723 74 200 0.0 4.0 0.00 0.00 0.00 63 1017.3
20260903130623 74 196 0.0 4.0 0.00 0.00 0.00 63 1017.4
20260903130523 73 202 0.0 4.0 0.00 0.00 0.00 62 1017.3
20260903130423 73 209 0.0 4.0 0.00 0.00 0.00 62 1017.3
20260903130324 73 191 0.0 4.0 0.00 0.00 0.00 62 1017.3
20260903130223 73 202 0.0 4.0 0.00 0.00 0.00 62 1017.6
20260903130123 73 199 0.0 4.0 0.00 0.00 0.00 62 1017.2
20260903130058 74 226 2.0 3.0 0.00 0.00 0.00 62 1017.3
20260903130042 74 195 0.0 3.0 0.00 0.00 0.00 64 1017.3
20260903125723 74 199 0.0 3.0 0.00 0.00 0.00 63 1017.5
20260903125623 74 196 0.0 3.0 0.00 0.00 0.00 63 1017.5
20260903125602 73 154 0.0 3.0 0.00 0.00 0.00 62 1017.5
20260903125553 74 197 0.0 3.0 0.00 0.00 0.00 64 1017.5
20260903125536 73 199 0.0 3.0 0.00 0.00 0.00 64 1017.5
20260903125520 73 203 2.0 3.0 0.00 0.00 0.00 62 1017.5
20260903125254 74 196 1.0 4.0 0.00 0.00 0.00 63 1017.8
20260903125238 74 202 0.0 4.0 0.00 0.00 0.00 63 1017.5
20260903125222 73 200 1.0 4.0 0.00 0.00 0.00 62 1017.7
20260903124946 73 198 0.0 4.0 0.00 0.00 0.00 62 1017.5
20260903124922 73 199 0.0 4.0 0.00 0.00 0.00 62 1017.6
20260903124657 73 193 0.0 4.0 0.00 0.00 0.00 63 1017.5
20260903124642 73 190 0.0 4.0 0.00 0.00 0.00 63 1017.2
20260903124626 73 201 0.0 4.0 0.00 0.00 0.00 62 1017.5
20260903124610 73 242 2.0 4.0 0.00 0.00 0.00 62 1017.6
20260903124553 73 154 0.0 3.0 0.00 0.00 0.00 62 1017.5
20260903124023 73 203 0.0 3.0 0.00 0.00 0.00 64 1017.5
20260903123923 74 195 0.0 3.0 0.00 0.00 0.00 64 1017.2
20260903123823 74 196 0.0 0.0 0.00 0.00 0.00 64 1017.6
20260903123724 74 211 0.0 2.0 0.00 0.00 0.00 65 1017.5
20260903123623 74 199 0.0 2.0 0.00 0.00 0.00 66 1017.6
20260903123523 74 201 0.0 2.0 0.00 0.00 0.00 65 1017.8
20260903123458 74 199 0.0 2.0 0.00 0.00 0.00 65 1017.7
20260903123442 74 200 0.0 2.0 0.00 0.00 0.00 65 1017.6
20260903123420 73 197 0.0 2.0 0.00 0.00 0.00 65 1017.7
20260903123404 73 198 0.0 2.0 0.00 0.00 0.00 65 1017.7
20260903122901 74 190 0.0 2.0 0.00 0.00 0.00 65 1017.4
20260903122835 74 215 1.0 2.0 0.00 0.00 0.00 65 1017.7
20260903122819 74 205 0.0 1.0 0.00 0.00 0.00 65 1017.6
20260903122803 74 200 0.0 1.0 0.00 0.00 0.00 64 1017.8
20260903122747 74 194 0.0 3.0 0.00 0.00 0.00 64 1017.6
20260903122305 74 200 0.0 6.0 0.00 0.00 0.00 64 1017.5
20260903122245 74 196 0.0 6.0 0.00 0.00 0.00 64 1017.7
20260903122008 74 174 0.0 6.0 0.00 0.00 0.00 65 1017.7
20260903121952 73 198 0.0 6.0 0.00 0.00 0.00 65 1017.7
20260903121724 73 200 0.0 6.0 0.00 0.00 0.00 65 1017.6
20260903121623 73 208 0.0 6.0 0.00 0.00 0.00 65 1017.7
20260903121559 74 202 1.0 6.0 0.00 0.00 0.00 64 1017.6
20260903121543 74 206 2.0 6.0 0.00 0.00 0.00 64 1017.6
20260903121222 74 205 1.0 1.0 0.00 0.00 0.00 64 1017.7
20260903121125 74 205 0.0 1.0 0.00 0.00 0.00 65 1017.5
20260903121059 74 199 0.0 1.0 0.00 0.00 0.00 64 1017.7
20260903121043 74 202 0.0 1.0 0.00 0.00 0.00 66 1017.5
20260903120723 74 198 0.0 1.0 0.00 0.00 0.00 65 1017.8
20260903120623 74 196 0.0 1.0 0.00 0.00 0.00 66 1017.6
20260903120522 74 202 0.0 1.0 0.00 0.00 0.00 65 1017.8
20260903120424 74 202 0.0 1.0 0.00 0.00 0.00 64 1017.7
20260903120323 74 202 0.0 1.0 0.00 0.00 0.00 63 1017.8
20260903120223 74 196 0.0 1.0 0.00 0.00 0.00 63 1017.8
20260903120124 74 195 0.0 1.0 0.00 0.00 0.00 62 1017.8
20260903120058 74 196 0.0 1.0 0.00 0.00 0.00 63 1017.8
20260903120043 74 202 0.0 1.0 0.00 0.00 0.00 62 1017.9
20260903115723 74 199 0.0 1.0 0.00 0.00 0.00 63 1017.8
20260903115622 74 201 0.0 1.0 0.00 0.00 0.00 63 1017.8
20260903115525 74 206 0.0 1.0 0.00 0.00 0.00 63 1017.9
20260903115423 74 196 0.0 1.0 0.00 0.00 0.00 64 1017.8
20260903115357 74 191 0.0 1.0 0.00 0.00 0.00 65 1017.9
20260903115335 74 201 0.0 1.0 0.00 0.00 0.00 64 1017.6
20260903115319 74 198 0.0 1.0 0.00 0.00 0.00 64 1017.8
20260903115043 74 196 0.0 1.0 0.00 0.00 0.00 64 1017.9
20260903114723 74 194 0.0 1.0 0.00 0.00 0.00 64 1017.8
20260903114623 74 200 0.0 1.0 0.00 0.00 0.00 64 1017.7
20260903114527 74 196 0.0 2.0 0.00 0.00 0.00 65 1017.8
20260903114522 74 175 0.0 0.0 0.00 0.00 0.00 65 1017.9
20260903114507 74 202 0.0 0.0 0.00 0.00 0.00 65 1017.9
20260903114450 74 198 0.0 2.0 0.00 0.00 0.00 64 1017.6
20260903114432 74 196 0.0 2.0 0.00 0.00 0.00 65 1017.8
20260903114200 74 199 0.0 2.0 0.00 0.00 0.00 65 1017.8
20260903114144 73 198 0.0 2.0 0.00 0.00 0.00 64 1017.8
20260903114127 73 199 0.0 2.0 0.00 0.00 0.00 64 1017.8
20260903113843 73 197 0.0 2.0 0.00 0.00 0.00 65 1017.8
20260903113523 73 201 0.0 2.0 0.00 0.00 0.00 65 1017.7
20260903113423 73 201 0.0 2.0 0.00 0.00 0.00 65 1018.0
20260903113323 73 192 0.0 2.0 0.00 0.00 0.00 65 1018.1
20260903113223 74 192 0.0 2.0 0.00 0.00 0.00 65 1018.0
20260903113124 74 198 0.0 2.0 0.00 0.00 0.00 66 1017.9
20260903113023 74 197 0.0 2.0 0.00 0.00 0.00 66 1017.9
20260903112924 74 201 0.0 2.0 0.00 0.00 0.00 64 1017.8
20260903112824 74 205 0.0 2.0 0.00 0.00 0.00 64 1017.8
20260903112723 74 182 0.0 2.0 0.00 0.00 0.00 65 1018.0
20260903112623 74 205 1.0 2.0 0.00 0.00 0.00 65 1018.0
20260903112610 73 199 0.0 2.0 0.00 0.00 0.00 65 1017.9
20260903112601 74 197 0.0 2.0 0.00 0.00 0.00 64 1018.0
20260903112545 74 230 1.0 2.0 0.00 0.00 0.00 64 1017.8
20260903112528 74 199 0.0 1.0 0.00 0.00 0.00 65 1018.0
20260903112305 74 194 0.0 1.0 0.00 0.00 0.00 65 1018.1
20260903112245 73 200 0.0 2.0 0.00 0.00 0.00 65 1018.0
20260903112008 73 195 0.0 2.0 0.00 0.00 0.00 64 1018.0
20260903111952 73 197 0.0 2.0 0.00 0.00 0.00 65 1018.0
20260903111933 73 199 0.0 2.0 0.00 0.00 0.00 65 1017.9
20260903111624 73 187 0.0 2.0 0.00 0.00 0.00 66 1018.0
20260903111523 73 198 0.0 2.0 0.00 0.00 0.00 66 1018.0
20260903111506 73 188 0.0 2.0 0.00 0.00 0.00 65 1017.8
20260903111451 73 203 0.0 2.0 0.00 0.00 0.00 66 1018.0
20260903111223 73 200 1.0 2.0 0.00 0.00 0.00 65 1018.1
20260903111123 73 216 0.0 1.0 0.00 0.00 0.00 66 1017.9
20260903111023 73 192 0.0 1.0 0.00 0.00 0.00 66 1018.0
20260903110923 73 197 0.0 1.0 0.00 0.00 0.00 66 1017.9
20260903110825 73 195 0.0 1.0 0.00 0.00 0.00 67 1017.8
20260903110723 73 180 0.0 1.0 0.00 0.00 0.00 66 1018.0
20260903110624 73 175 0.0 1.0 0.00 0.00 0.00 67 1018.0
20260903110523 73 192 0.0 1.0 0.00 0.00 0.00 65 1018.0
20260903110423 73 191 0.0 1.0 0.00 0.00 0.00 65 1018.0
20260903110328 74 197 0.0 2.0 0.00 0.00 0.00 64 1018.3
20260903110324 73 194 0.0 1.0 0.00 0.00 0.00 65 1018.0
20260903110301 74 185 0.0 1.0 0.00 0.00 0.00 65 1017.7
20260903110244 74 204 0.0 1.0 0.00 0.00 0.00 65 1017.9
20260903110228 74 203 0.0 1.0 0.00 0.00 0.00 65 1018.2
20260903110212 74 198 0.0 1.0 0.00 0.00 0.00 64 1018.0
20260903110156 74 198 0.0 1.0 0.00 0.00 0.00 64 1017.8
20260903105624 74 198 0.0 2.0 0.00 0.00 0.00 64 1018.1
20260903105559 74 203 0.0 2.0 0.00 0.00 0.00 63 1018.0
20260903105544 74 208 0.0 2.0 0.00 0.00 0.00 63 1018.2
20260903105224 74 198 0.0 2.0 0.00 0.00 0.00 66 1018.2
20260903105159 73 201 0.0 2.0 0.00 0.00 0.00 65 1018.2
20260903105143 73 194 0.0 2.0 0.00 0.00 0.00 65 1018.1
20260903104823 73 192 0.0 2.0 0.00 0.00 0.00 65 1018.1
20260903104735 74 255 1.0 1.0 0.00 0.00 0.00 64 1018.0
20260903104712 72 201 0.0 2.0 0.00 0.00 0.00 65 1018.4
20260903104708 75 195 0.0 7.0 0.00 0.00 0.00 61 1018.2
20260903104702 76 205 2.0 4.0 0.00 0.00 0.00 61 1018.3
20260903104658 77 201 0.0 3.0 0.00 0.00 0.00 61 1018.5
20260903104650 74 203 1.0 1.0 0.00 0.00 0.00 63 1018.0
20260903104634 74 127 0.0 1.0 0.00 0.00 0.00 63 1018.1
20260903104619 75 190 0.0 1.0 0.00 0.00 0.00 63 1018.2
20260903104603 75 191 0.0 1.0 0.00 0.00 0.00 62 1018.1
20260903104541 75 199 0.0 1.0 0.00 0.00 0.00 64 1018.0
20260903104524 75 195 0.0 1.0 0.00 0.00 0.00 64 1017.9
20260903104508 75 195 0.0 1.0 0.00 0.00 0.00 64 1018.1
20260903104004 74 189 0.0 1.0 0.00 0.00 0.00 65 1018.0
20260903103948 74 198 0.0 1.0 0.00 0.00 0.00 65 1018.2
20260903103932 74 176 1.0 1.0 0.00 0.00 0.00 64 1018.2
20260903103656 73 197 0.0 1.0 0.00 0.00 0.00 65 1017.8
20260903103633 73 194 0.0 1.0 0.00 0.00 0.00 64 1018.0
20260903103618 74 183 0.0 1.0 0.00 0.00 0.00 63 1017.9
20260903103602 74 171 0.0 1.0 0.00 0.00 0.00 63 1018.0
20260903103547 74 202 0.0 1.0 0.00 0.00 0.00 63 1018.4
20260903103531 74 200 0.0 1.0 0.00 0.00 0.00 63 1018.2
20260903103507 73 202 0.0 1.0 0.00 0.00 0.00 63 1018.2
20260903103231 73 198 0.0 2.0 0.00 0.00 0.00 65 1018.2
20260903103215 72 200 0.0 2.0 0.00 0.00 0.00 65 1018.1
20260903103159 72 201 0.0 2.0 0.00 0.00 0.00 65 1018.3
20260903103142 72 201 0.0 2.0 0.00 0.00 0.00 65 1018.4
20260903102916 72 192 0.0 2.0 0.00 0.00 0.00 65 1018.1
20260903102900 73 194 0.0 2.0 0.00 0.00 0.00 65 1018.1
20260903102844 74 184 0.0 4.0 0.00 0.00 0.00 63 1018.1
20260903102135 76 200 0.0 7.0 0.00 0.00 0.00 63 1018.3
20260903102119 76 207 0.0 7.0 0.00 0.00 0.00 60 1018.5
20260903102102 76 206 1.0 7.0 0.00 0.00 0.00 61 1018.7
20260903102046 75 205 0.0 7.0 0.00 0.00 0.00 62 1018.4
20260903101820 75 203 0.0 7.0 0.00 0.00 0.00 63 1018.7
20260903101804 75 201 0.0 7.0 0.00 0.00 0.00 62 1018.4
20260903101308 76 203 0.0 4.0 0.00 0.00 0.00 60 1018.2
20260903101039 76 203 0.0 4.0 0.00 0.00 0.00 60 1018.2
20260903101022 76 193 0.0 4.0 0.00 0.00 0.00 61 1018.2
20260903101006 76 203 1.0 4.0 0.00 0.00 0.00 61 1018.3
20260903100950 76 224 3.0 4.0 0.00 0.00 0.00 60 1018.0
20260903100934 76 222 1.0 4.0 0.00 0.00 0.00 60 1018.2
20260903100227 76 201 0.0 2.0 0.00 0.00 0.00 62 1018.2
20260903095951 76 196 1.0 2.0 0.00 0.00 0.00 60 1018.4
20260903095932 77 201 0.0 3.0 0.00 0.00 0.00 61 1018.5
20260903095623 77 218 0.0 3.0 0.00 0.00 0.00 58 1018.3
20260903095559 77 199 0.0 3.0 0.00 0.00 0.00 59 1018.7
20260903095543 77 204 0.0 3.0 0.00 0.00 0.00 60 1018.5
20260903095223 77 194 0.0 3.0 0.00 0.00 0.00 59 1018.9
20260903095122 77 199 0.0 3.0 0.00 0.00 0.00 60 1018.7
20260903095023 77 207 0.0 3.0 0.00 0.00 0.00 59 1018.4
20260903094923 76 223 1.0 3.0 0.00 0.00 0.00 59 1018.9
20260903094823 76 200 0.0 3.0 0.00 0.00 0.00 60 1018.8
20260903094725 76 201 0.0 2.0 0.00 0.00 0.00 62 1018.5
20260903094622 76 201 0.0 2.0 0.00 0.00 0.00 63 1018.8
20260903094527 75 201 0.0 2.0 0.00 0.00 0.00 62 1018.7
20260903094515 76 154 1.0 2.0 0.00 0.00 0.00 62 1018.7
20260903094506 75 187 0.0 2.0 0.00 0.00 0.00 61 1018.5
20260903094450 76 83 1.0 2.0 0.00 0.00 0.00 61 1018.7
20260903094432 76 154 1.0 2.0 0.00 0.00 0.00 62 1018.7
20260903094123 76 191 1.0 2.0 0.00 0.00 0.00 62 1018.7
20260903094024 76 196 0.0 2.0 0.00 0.00 0.00 62 1018.8
20260903093923 75 200 1.0 2.0 0.00 0.00 0.00 62 1018.8
20260903093824 75 199 0.0 3.0 0.00 0.00 0.00 62 1018.8
20260903093723 75 146 1.0 3.0 0.00 0.00 0.00 62 1018.7
20260903093623 75 130 1.0 3.0 0.00 0.00 0.00 61 1019.0
20260903093524 75 193 1.0 3.0 0.00 0.00 0.00 62 1018.5
20260903093424 75 200 0.0 3.0 0.00 0.00 0.00 62 1018.9
20260903093323 75 196 0.0 3.0 0.00 0.00 0.00 61 1019.0
20260903093223 75 205 0.0 3.0 0.00 0.00 0.00 61 1018.7
20260903093124 74 198 1.0 3.0 0.00 0.00 0.00 62 1018.8
20260903093022 74 199 0.0 3.0 0.00 0.00 0.00 64 1018.9
20260903093001 75 203 0.0 3.0 0.00 0.00 0.00 60 1018.9
20260903092946 76 218 3.0 3.0 0.00 0.00 0.00 59 1018.8
20260903092921 76 202 0.0 3.0 0.00 0.00 0.00 60 1018.8
20260903092905 76 203 0.0 3.0 0.00 0.00 0.00 60 1018.5
20260903092324 75 205 0.0 3.0 0.00 0.00 0.00 62 1019.0
20260903092223 75 202 0.0 3.0 0.00 0.00 0.00 62 1018.8
20260903092124 75 177 0.0 3.0 0.00 0.00 0.00 62 1018.9
20260903092058 75 199 0.0 3.0 0.00 0.00 0.00 62 1019.0
20260903092043 75 203 0.0 3.0 0.00 0.00 0.00 60 1019.1
20260903091723 76 225 2.0 3.0 0.00 0.00 0.00 59 1018.9
20260903091623 77 221 1.0 2.0 0.00 0.00 0.00 58 1018.8
20260903091601 77 197 0.0 2.0 0.00 0.00 0.00 60 1018.9
20260903091544 77 196 0.0 2.0 0.00 0.00 0.00 59 1019.1
20260903091528 77 201 0.0 2.0 0.00 0.00 0.00 58 1019.0
20260903091302 77 205 0.0 2.0 0.00 0.00 0.00 57 1019.3
20260903091245 77 212 0.0 2.0 0.00 0.00 0.00 57 1018.8
20260903090924 77 209 1.0 2.0 0.00 0.00 0.00 60 1018.9
20260903090823 76 208 0.0 1.0 0.00 0.00 0.00 59 1018.9
20260903090723 76 198 0.0 1.0 0.00 0.00 0.00 58 1018.8
20260903090624 76 200 0.0 1.0 0.00 0.00 0.00 59 1018.9
20260903090601 75 199 0.0 1.0 0.00 0.00 0.00 61 1019.1
20260903090545 75 199 0.0 1.0 0.00 0.00 0.00 62 1019.1
20260903090223 75 162 1.0 1.0 0.00 0.00 0.00 62 1019.0
20260903090123 75 202 0.0 1.0 0.00 0.00 0.00 61 1019.0
20260903090023 75 199 0.0 1.0 0.00 0.00 0.00 62 1018.7
20260903085923 76 201 0.0 1.0 0.00 0.00 0.00 61 1019.1
20260903085823 76 204 0.0 1.0 0.00 0.00 0.00 60 1019.0
20260903085723 76 202 0.0 1.0 0.00 0.00 0.00 59 1019.1
20260903085623 75 198 0.0 1.0 0.00 0.00 0.00 60 1019.1
20260903085523 75 207 0.0 1.0 0.00 0.00 0.00 59 1019.1
20260903085505 75 203 0.0 0.0 0.00 0.00 0.00 58 1019.0
20260903085450 75 201 0.0 0.0 0.00 0.00 0.00 61 1019.1
20260903085223 74 202 0.0 0.0 0.00 0.00 0.00 62 1019.1
20260903085159 74 195 0.0 0.0 0.00 0.00 0.00 62 1019.0
20260903085143 74 204 0.0 0.0 0.00 0.00 0.00 63 1019.0
20260903084823 74 199 0.0 0.0 0.00 0.00 0.00 63 1019.3
20260903084722 73 199 0.0 0.0 0.00 0.00 0.00 65 1019.2
20260903084227 73 202 0.0 2.0 0.00 0.00 0.00 65 1019.1
20260903083906 73 204 1.0 2.0 0.00 0.00 0.00 62 1019.1
20260903083809 73 199 0.0 2.0 0.00 0.00 0.00 63 1019.1
20260903083727 73 196 1.0 2.0 0.00 0.00 0.00 62 1019.1
20260903083707 73 202 0.0 2.0 0.00 0.00 0.00 62 1019.2
20260903083608 73 202 0.0 2.0 0.00 0.00 0.00 62 1019.2
20260903083507 73 201 0.0 2.0 0.00 0.00 0.00 63 1019.2
20260903083451 73 197 0.0 2.0 0.00 0.00 0.00 66 1019.2
20260903083435 73 201 0.0 2.0 0.00 0.00 0.00 66 1019.2
20260903083420 74 203 0.0 2.0 0.00 0.00 0.00 66 1019.2
20260903083143 73 202 0.0 1.0 0.00 0.00 0.00 65 1019.3
20260903083126 73 203 0.0 1.0 0.00 0.00 0.00 65 1019.0
20260903082808 72 201 0.0 1.0 0.00 0.00 0.00 67 1019.3
20260903082741 72 203 0.0 1.0 0.00 0.00 0.00 67 1019.3
20260903082706 72 196 0.0 1.0 0.00 0.00 0.00 68 1019.0
20260903082608 72 148 1.0 1.0 0.00 0.00 0.00 67 1019.4
20260903082507 72 187 0.0 1.0 0.00 0.00 0.00 66 1019.4
20260903082408 73 166 0.0 1.0 0.00 0.00 0.00 66 1019.1
20260903082307 73 191 1.0 1.0 0.00 0.00 0.00 66 1019.2
20260903082252 73 198 0.0 1.0 0.00 0.00 0.00 66 1019.2
20260903082244 73 200 0.0 1.0 0.00 0.00 0.00 66 1019.4
20260903082228 73 196 0.0 1.0 0.00 0.00 0.00 67 1019.3
20260903081943 73 200 0.0 1.0 0.00 0.00 0.00 68 1019.2
20260903081928 73 199 0.0 1.0 0.00 0.00 0.00 67 1019.2
20260903081913 73 201 0.0 1.0 0.00 0.00 0.00 67 1019.2
20260903081903 73 200 0.0 1.0 0.00 0.00 0.00 67 1019.4
20260903081847 73 191 0.0 1.0 0.00 0.00 0.00 68 1019.2
20260903081351 73 194 0.0 1.0 0.00 0.00 0.00 67 1019.1
20260903081336 73 198 0.0 1.0 0.00 0.00 0.00 67 1019.1
20260903081329 73 199 0.0 1.0 0.00 0.00 0.00 67 1019.2
20260903081007 73 196 0.0 1.0 0.00 0.00 0.00 66 1019.2
20260903080907 73 198 0.0 1.0 0.00 0.00 0.00 67 1019.1
20260903080807 73 198 0.0 1.0 0.00 0.00 0.00 68 1019.3
20260903080739 73 200 0.0 1.0 0.00 0.00 0.00 69 1019.3
20260903080707 72 200 0.0 1.0 0.00 0.00 0.00 69 1019.2
20260903080643 72 200 0.0 1.0 0.00 0.00 0.00 70 1019.1
20260903080627 72 207 0.0 1.0 0.00 0.00 0.00 70 1019.2
20260903080612 71 201 0.0 1.0 0.00 0.00 0.00 72 1019.4
20260903080557 71 200 0.0 1.0 0.00 0.00 0.00 72 1019.3
20260903080542 71 192 0.0 1.0 0.00 0.00 0.00 71 1019.3
20260903080008 71 181 1.0 1.0 0.00 0.00 0.00 71 1019.4
20260903075907 71 191 1.0 1.0 0.00 0.00 0.00 72 1019.1
20260903075809 71 177 1.0 2.0 0.00 0.00 0.00 72 1019.3
20260903075728 71 175 0.0 3.0 0.00 0.00 0.00 73 1019.3
20260903075706 71 204 0.0 4.0 0.00 0.00 0.00 73 1019.3
20260903075607 71 197 1.0 4.0 0.00 0.00 0.00 72 1019.2
20260903075507 72 196 0.0 4.0 0.00 0.00 0.00 72 1019.3
20260903075406 72 203 0.0 4.0 0.00 0.00 0.00 71 1019.3
20260903075307 72 199 0.0 4.0 0.00 0.00 0.00 70 1019.4
20260903075227 72 205 0.0 4.0 0.00 0.00 0.00 70 1019.4
20260903075208 72 204 0.0 4.0 0.00 0.00 0.00 71 1019.4
20260903075106 71 207 0.0 4.0 0.00 0.00 0.00 71 1019.3
20260903075007 71 203 1.0 4.0 0.00 0.00 0.00 70 1019.4
20260903074914 71 203 0.0 4.0 0.00 0.00 0.00 71 1019.0
20260903074807 72 216 2.0 4.0 0.00 0.00 0.00 71 1019.0
20260903074727 72 217 4.0 4.0 0.00 0.00 0.00 71 1019.3
20260903074707 72 208 2.0 3.0 0.00 0.00 0.00 71 1019.3
20260903074643 72 200 0.0 2.0 0.00 0.00 0.00 71 1019.3
20260903074628 72 176 0.0 2.0 0.00 0.00 0.00 69 1019.2
20260903074308 72 208 0.0 2.0 0.00 0.00 0.00 70 1019.0
20260903074227 72 199 0.0 2.0 0.00 0.00 0.00 70 1019.0
20260903074207 72 199 0.0 2.0 0.00 0.00 0.00 70 1019.2
20260903074106 72 200 0.0 2.0 0.00 0.00 0.00 71 1019.2
20260903074023 72 201 0.0 2.0 0.00 0.00 0.00 71 1019.3
20260903074018 72 218 1.0 2.0 0.00 0.00 0.00 72 1019.4
20260903074002 72 202 0.0 2.0 0.00 0.00 0.00 72 1019.1
20260903073946 72 218 0.0 2.0 0.00 0.00 0.00 72 1019.3
20260903073707 72 198 0.0 2.0 0.00 0.00 0.00 71 1019.2
20260903073607 72 200 0.0 2.0 0.00 0.00 0.00 72 1019.3
20260903073506 72 194 0.0 2.0 0.00 0.00 0.00 71 1019.2
20260903073408 72 200 0.0 2.0 0.00 0.00 0.00 71 1019.2
20260903073307 72 200 0.0 2.0 0.00 0.00 0.00 71 1019.2
20260903073228 72 201 0.0 2.0 0.00 0.00 0.00 71 1019.2
20260903073207 72 204 1.0 2.0 0.00 0.00 0.00 70 1019.3
20260903073132 72 199 0.0 2.0 0.00 0.00 0.00 71 1019.3
20260903073116 72 207 1.0 1.0 0.00 0.00 0.00 70 1019.1
20260903073101 72 200 0.0 1.0 0.00 0.00 0.00 71 1019.2
20260903072828 72 200 0.0 4.0 0.00 0.00 0.00 70 1018.9
20260903072817 72 200 0.0 4.0 0.00 0.00 0.00 71 1019.2
20260903072524 71 199 0.0 4.0 0.00 0.00 0.00 73 1019.2
20260903072517 71 198 0.0 4.0 0.00 0.00 0.00 72 1019.1
20260903072501 71 199 0.0 4.0 0.00 0.00 0.00 73 1019.1
20260903072446 71 200 0.0 4.0 0.00 0.00 0.00 73 1019.2
20260903072155 70 196 0.0 4.0 0.00 0.00 0.00 73 1019.2
20260903072055 70 205 0.0 4.0 0.00 0.00 0.00 74 1019.2
20260903071956 70 198 0.0 4.0 0.00 0.00 0.00 74 1019.2
20260903071855 69 199 0.0 4.0 0.00 0.00 0.00 74 1019.0
20260903071828 69 205 2.0 4.0 0.00 0.00 0.00 74 1018.9
20260903071815 69 243 1.0 3.0 0.00 0.00 0.00 75 1018.9
20260903071804 69 196 0.0 3.0 0.00 0.00 0.00 76 1019.2
20260903071444 68 202 0.0 3.0 0.00 0.00 0.00 76 1019.1
20260903071343 68 208 1.0 3.0 0.00 0.00 0.00 75 1019.3
20260903071243 68 202 0.0 3.0 0.00 0.00 0.00 77 1019.0
20260903071227 68 198 0.0 3.0 0.00 0.00 0.00 77 1019.0
20260903071143 67 199 0.0 3.0 0.00 0.00 0.00 77 1019.2
20260903071043 67 195 1.0 3.0 0.00 0.00 0.00 77 1019.2
20260903070942 68 203 1.0 3.0 0.00 0.00 0.00 76 1019.3
20260903070843 69 198 1.0 3.0 0.00 0.00 0.00 76 1019.1
20260903070743 69 202 1.0 3.0 0.00 0.00 0.00 76 1019.0
20260903070727 69 197 0.0 3.0 0.00 0.00 0.00 76 1019.0
20260903070644 69 206 1.0 3.0 0.00 0.00 0.00 76 1019.0
20260903070543 69 207 2.0 3.0 0.00 0.00 0.00 75 1019.0
20260903070443 69 224 1.0 2.0 0.00 0.00 0.00 75 1019.2
20260903070344 69 204 1.0 3.0 0.00 0.00 0.00 75 1019.1
20260903070244 70 195 1.0 3.0 0.00 0.00 0.00 75 1018.8
20260903070227 70 199 0.0 3.0 0.00 0.00 0.00 75 1018.8
20260903070143 70 200 0.0 3.0 0.00 0.00 0.00 76 1019.2
20260903070119 69 196 0.0 3.0 0.00 0.00 0.00 75 1019.1
20260903070103 69 192 0.0 3.0 0.00 0.00 0.00 76 1018.9
20260903065816 69 209 0.0 3.0 0.00 0.00 0.00 75 1019.1
20260903065804 69 201 0.0 3.0 0.00 0.00 0.00 76 1019.0
20260903065518 68 202 0.0 3.0 0.00 0.00 0.00 76 1019.1
20260903065501 68 221 2.0 3.0 0.00 0.00 0.00 76 1019.0
20260903065446 68 202 0.0 3.0 0.00 0.00 0.00 77 1019.0
20260903065434 68 199 0.0 3.0 0.00 0.00 0.00 77 1019.0
20260903065203 69 219 2.0 3.0 0.00 0.00 0.00 75 1019.2
20260903064921 69 190 0.0 3.0 0.00 0.00 0.00 75 1018.9
20260903064906 69 206 0.0 2.0 0.00 0.00 0.00 75 1019.0
20260903064854 69 208 0.0 2.0 0.00 0.00 0.00 75 1019.0
20260903064841 69 199 0.0 2.0 0.00 0.00 0.00 76 1019.0
20260903064605 69 208 0.0 4.0 0.00 0.00 0.00 76 1019.2
20260903064243 68 203 1.0 4.0 0.00 0.00 0.00 77 1018.9
20260903064227 68 198 0.0 4.0 0.00 0.00 0.00 77 1018.9
20260903064142 68 210 0.0 4.0 0.00 0.00 0.00 78 1019.2
20260903064043 68 198 0.0 4.0 0.00 0.00 0.00 78 1019.0
20260903063943 68 204 0.0 4.0 0.00 0.00 0.00 78 1019.0
20260903063843 67 196 0.0 4.0 0.00 0.00 0.00 79 1019.0
20260903063744 67 198 0.0 4.0 0.00 0.00 0.00 79 1018.9
20260903063727 68 198 0.0 4.0 0.00 0.00 0.00 79 1018.9
20260903063643 68 200 3.0 4.0 0.00 0.00 0.00 78 1019.2
20260903063619 68 204 0.0 3.0 0.00 0.00 0.00 78 1019.0
20260903063604 68 201 0.0 3.0 0.00 0.00 0.00 78 1019.0
20260903063257 65 187 0.0 0.0 0.00 0.00 0.00 84 1019.2
20260903063250 68 228 3.0 4.0 0.00 0.00 0.00 77 1019.1
20260903063238 68 216 2.0 4.0 0.00 0.00 0.00 77 1019.1
20260903063228 68 196 0.0 4.0 0.00 0.00 0.00 78 1019.0
20260903063213 67 192 0.0 4.0 0.00 0.00 0.00 78 1018.9
20260903062937 67 201 0.0 4.0 0.00 0.00 0.00 79 1018.9
20260903062921 67 206 0.0 4.0 0.00 0.00 0.00 79 1018.8
20260903062909 67 215 0.0 4.0 0.00 0.00 0.00 79 1018.8
20260903062857 67 201 1.0 4.0 0.00 0.00 0.00 79 1019.0
20260903062622 67 210 3.0 4.0 0.00 0.00 0.00 79 1018.9
20260903062606 67 201 0.0 2.0 0.00 0.00 0.00 79 1018.9
20260903062551 67 202 0.0 2.0 0.00 0.00 0.00 79 1019.0
20260903062539 67 202 0.0 2.0 0.00 0.00 0.00 79 1019.0
20260903062308 67 215 0.0 2.0 0.00 0.00 0.00 79 1019.1
20260903062027 68 203 0.0 2.0 0.00 0.00 0.00 79 1018.9
20260903062000 68 205 0.0 1.0 0.00 0.00 0.00 78 1019.1
20260903061947 68 202 0.0 1.0 0.00 0.00 0.00 79 1019.1
20260903061712 67 107 0.0 0.0 0.00 0.00 0.00 80 1019.1
20260903061657 67 194 0.0 0.0 0.00 0.00 0.00 81 1019.0
20260903061424 67 194 0.0 0.0 0.00 0.00 0.00 81 1019.1
20260903061152 66 194 0.0 0.0 0.00 0.00 0.00 82 1019.3
20260903061137 66 121 0.0 0.0 0.00 0.00 0.00 82 1018.9
20260903061120 66 191 0.0 0.0 0.00 0.00 0.00 83 1019.2
20260903061105 65 191 0.0 0.0 0.00 0.00 0.00 84 1019.2
20260903060836 65 191 0.0 0.0 0.00 0.00 0.00 84 1019.3
20260903060822 65 193 0.0 0.0 0.00 0.00 0.00 85 1019.3
20260903060243 64 193 0.0 0.0 0.00 0.00 0.00 88 1019.2
20260903060227 64 192 0.0 0.0 0.00 0.00 0.00 88 1019.2
20260903060143 63 193 0.0 0.0 0.00 0.00 0.00 89 1019.3
20260903060120 63 193 0.0 0.0 0.00 0.00 0.00 89 1019.2
20260903060104 62 191 0.0 0.0 0.00 0.00 0.00 89 1019.3
20260903055727 62 107 0.0 0.0 0.00 0.00 0.00 91 1019.5
20260903055643 61 194 0.0 0.0 0.00 0.00 0.00 92 1019.3
20260903055555 61 191 0.0 0.0 0.00 0.00 0.00 92 1019.3
20260903055540 60 191 0.0 0.0 0.00 0.00 0.00 92 1019.2
20260903055523 60 190 0.0 0.0 0.00 0.00 0.00 92 1019.3
20260903055507 60 186 0.0 0.0 0.00 0.00 0.00 92 1019.2
20260903055455 60 186 0.0 0.0 0.00 0.00 0.00 92 1019.2
20260903055444 60 181 0.0 0.0 0.00 0.00 0.00 93 1019.2
20260903055209 60 179 0.0 0.0 0.00 0.00 0.00 93 1019.1
20260903055153 60 190 0.0 0.0 0.00 0.00 0.00 93 1019.3
20260903054920 60 198 0.0 0.0 0.00 0.00 0.00 94 1019.0
20260903054908 60 201 0.0 0.0 0.00 0.00 0.00 94 1019.3
20260903054632 60 201 0.0 0.0 0.00 0.00 0.00 95 1019.2
20260903054616 60 201 0.0 0.0 0.00 0.00 0.00 96 1019.2
20260903054350 60 201 0.0 0.0 0.00 0.00 0.00 96 1019.1
20260903054031 59 200 0.0 0.0 0.00 0.00 0.00 97 1019.3
20260903053931 59 200 0.0 0.0 0.00 0.00 0.00 97 1019.2
20260903053831 59 200 0.0 0.0 0.00 0.00 0.00 97 1019.0
20260903053731 59 200 0.0 0.0 0.00 0.00 0.00 97 1019.1
20260903053715 59 200 0.0 0.0 0.00 0.00 0.00 97 1019.1
20260903053631 59 200 0.0 0.0 0.00 0.00 0.00 97 1019.2
20260903053607 59 200 0.0 0.0 0.00 0.00 0.00 97 1018.9
20260903053551 59 200 0.0 0.0 0.00 0.00 0.00 98 1019.1
20260903053232 58 200 0.0 0.0 0.00 0.00 0.00 98 1019.3
20260903053215 58 200 0.0 0.0 0.00 0.00 0.00 98 1019.3
20260903053131 58 200 0.0 0.0 0.00 0.00 0.00 98 1019.0
20260903053031 58 200 0.0 0.0 0.00 0.00 0.00 98 1019.3
20260903052931 58 200 0.0 0.0 0.00 0.00 0.00 98 1019.3
20260903052831 57 201 0.0 0.0 0.00 0.00 0.00 98 1019.2
20260903052731 57 201 0.0 0.0 0.00 0.00 0.00 98 1019.2
20260903052715 57 201 0.0 0.0 0.00 0.00 0.00 98 1019.2
20260903052631 57 201 0.0 0.0 0.00 0.00 0.00 98 1018.9
20260903052531 57 201 0.0 0.0 0.00 0.00 0.00 98 1019.3
20260903052511 57 201 0.0 0.0 0.00 0.00 0.00 98 1019.1
20260903052503 57 201 0.0 0.0 0.00 0.00 0.00 98 1019.0
20260903052447 57 201 0.0 0.0 0.00 0.00 0.00 98 1019.0
20260903052432 57 201 0.0 0.0 0.00 0.00 0.00 98 1019.1
20260903052130 57 201 0.0 0.0 0.00 0.00 0.00 98 1019.0
20260903052031 57 201 0.0 0.0 0.00 0.00 0.00 98 1019.1
20260903051931 57 201 0.0 0.0 0.00 0.00 0.00 98 1019.0
20260903051831 57 201 0.0 0.0 0.00 0.00 0.00 98 1019.2
20260903051716 57 201 0.0 0.0 0.00 0.00 0.00 98 1018.9
20260903051632 57 201 0.0 0.0 0.00 0.00 0.00 98 1019.1
20260903051608 56 201 0.0 0.0 0.00 0.00 0.00 98 1018.8
20260903051600 57 201 0.0 0.0 0.00 0.00 0.00 98 1019.1
20260903051543 57 201 0.0 0.0 0.00 0.00 0.00 98 1019.0
20260903051528 57 201 0.0 0.0 0.00 0.00 0.00 98 1019.3
20260903051257 56 201 0.0 0.0 0.00 0.00 0.00 98 1018.9
20260903051246 56 201 0.0 0.0 0.00 0.00 0.00 98 1018.9
20260903051230 56 201 0.0 0.0 0.00 0.00 0.00 98 1019.0
20260903051214 56 201 0.0 0.0 0.00 0.00 0.00 98 1018.9
20260903051157 56 201 0.0 0.0 0.00 0.00 0.00 98 1018.8
20260903050707 56 201 0.0 0.0 0.00 0.00 0.00 98 1018.9
20260903050651 56 201 0.0 1.0 0.00 0.00 0.00 98 1018.7
20260903050331 56 201 0.0 1.0 0.00 0.00 0.00 98 1019.1
20260903050216 56 201 0.0 1.0 0.00 0.00 0.00 98 1018.9
20260903050131 56 202 0.0 1.0 0.00 0.00 0.00 98 1018.9
20260903050034 56 202 0.0 1.0 0.00 0.00 0.00 98 1018.9
20260903045930 56 203 0.0 1.0 0.00 0.00 0.00 98 1018.8
20260903045831 56 206 0.0 1.0 0.00 0.00 0.00 98 1018.7
20260903045717 56 208 0.0 1.0 0.00 0.00 0.00 98 1018.7
20260903045707 56 208 0.0 1.0 0.00 0.00 0.00 98 1018.9
20260903045651 56 209 0.0 1.0 0.00 0.00 0.00 98 1018.7
20260903045330 56 205 1.0 1.0 0.00 0.00 0.00 98 1018.4
20260903045231 56 204 1.0 1.0 0.00 0.00 0.00 98 1018.8
20260903045215 56 200 0.0 1.0 0.00 0.00 0.00 98 1018.8
20260903045131 56 192 0.0 0.0 0.00 0.00 0.00 98 1018.5
20260903045032 56 192 0.0 0.0 0.00 0.00 0.00 98 1018.5
20260903044931 57 191 0.0 0.0 0.00 0.00 0.00 98 1018.8
20260903044831 57 191 0.0 0.0 0.00 0.00 0.00 98 1018.5
20260903044811 56 191 0.0 0.0 0.00 0.00 0.00 98 1018.7
20260903044749 57 191 0.0 0.0 0.00 0.00 0.00 98 1018.3
20260903044739 57 191 0.0 0.0 0.00 0.00 0.00 98 1018.7
20260903044723 57 191 0.0 0.0 0.00 0.00 0.00 98 1018.4
20260903044447 56 191 0.0 0.0 0.00 0.00 0.00 98 1018.7
20260903044431 56 191 0.0 0.0 0.00 0.00 0.00 98 1018.7
20260903044131 56 191 0.0 0.0 0.00 0.00 0.00 98 1018.8
20260903044031 56 191 0.0 0.0 0.00 0.00 0.00 98 1018.4
20260903044007 56 191 0.0 0.0 0.00 0.00 0.00 98 1018.5
20260903043950 56 191 0.0 0.0 0.00 0.00 0.00 98 1018.5
20260903043715 56 192 0.0 0.0 0.00 0.00 0.00 98 1018.5
20260903043657 56 192 0.0 0.0 0.00 0.00 0.00 98 1018.4
20260903043641 56 193 0.0 0.0 0.00 0.00 0.00 98 1018.4
20260903043625 56 193 0.0 0.0 0.00 0.00 0.00 98 1018.4
20260903043401 56 193 0.0 0.0 0.00 0.00 0.00 98 1018.4
20260903043346 56 194 0.0 0.0 0.00 0.00 0.00 98 1018.7
20260903043334 56 193 0.0 0.0 0.00 0.00 0.00 98 1018.7
20260903043324 56 194 0.0 0.0 0.00 0.00 0.00 98 1018.5
20260903043100 56 194 0.0 0.0 0.00 0.00 0.00 98 1018.8
20260903043045 56 194 0.0 0.0 0.00 0.00 0.00 98 1018.5
20260903043029 56 194 0.0 0.0 0.00 0.00 0.00 98 1018.5
20260903043014 56 194 0.0 0.0 0.00 0.00 0.00 98 1018.7
20260903043000 56 194 0.0 0.0 0.00 0.00 0.00 98 1018.7
20260903042949 56 194 0.0 0.0 0.00 0.00 0.00 97 1018.5
20260903042933 56 194 0.0 0.0 0.00 0.00 0.00 97 1018.5
20260903042657 56 194 0.0 0.0 0.00 0.00 0.00 97 1018.7
20260903042211 56 194 0.0 0.0 0.00 0.00 0.00 97 1018.5
20260903042156 56 195 0.0 0.0 0.00 0.00 0.00 97 1018.4
20260903042140 56 195 0.0 0.0 0.00 0.00 0.00 97 1018.5
20260903041859 56 188 0.0 0.0 0.00 0.00 0.00 97 1018.5
20260903041846 56 199 0.0 0.0 0.00 0.00 0.00 97 1018.5
20260903041532 56 196 0.0 0.0 0.00 0.00 0.00 97 1018.7
20260903041512 56 196 0.0 0.0 0.00 0.00 0.00 97 1018.7
20260903041456 56 196 0.0 0.0 0.00 0.00 0.00 97 1018.5
20260903041214 56 195 0.0 0.0 0.00 0.00 0.00 96 1018.8
20260903041131 56 194 0.0 0.0 0.00 0.00 0.00 96 1018.5
20260903041031 56 194 0.0 0.0 0.00 0.00 0.00 96 1018.7
20260903040930 56 194 0.0 0.0 0.00 0.00 0.00 96 1018.5
20260903040830 56 194 0.0 0.0 0.00 0.00 0.00 96 1018.5
20260903040715 56 194 0.0 0.0 0.00 0.00 0.00 96 1018.5
20260903040630 56 194 0.0 0.0 0.00 0.00 0.00 96 1018.7
20260903040530 56 194 0.0 0.0 0.00 0.00 0.00 96 1018.7
20260903040431 56 194 0.0 0.0 0.00 0.00 0.00 96 1018.5
20260903040331 57 194 0.0 0.0 0.00 0.00 0.00 96 1018.7
20260903040231 57 193 0.0 0.0 0.00 0.00 0.00 96 1018.7
20260903040130 57 194 0.0 0.0 0.00 0.00 0.00 96 1018.7
20260903040030 57 194 0.0 0.0 0.00 0.00 0.00 96 1018.5
20260903035931 57 194 0.0 0.0 0.00 0.00 0.00 96 1018.5
20260903035831 57 193 0.0 0.0 0.00 0.00 0.00 95 1018.5
20260903035718 57 194 0.0 0.0 0.00 0.00 0.00 95 1018.7
20260903035618 57 193 0.0 0.0 0.00 0.00 0.00 95 1018.5
20260903035521 57 195 0.0 0.0 0.00 0.00 0.00 95 1018.5
20260903035511 57 195 0.0 0.0 0.00 0.00 0.00 95 1018.7
20260903035502 57 195 0.0 0.0 0.00 0.00 0.00 95 1018.7
20260903035446 57 195 0.0 0.0 0.00 0.00 0.00 95 1018.7
20260903035428 57 195 0.0 0.0 0.00 0.00 0.00 95 1018.7
20260903035118 57 195 0.0 0.0 0.00 0.00 0.00 95 1018.3
20260903035018 57 193 0.0 0.0 0.00 0.00 0.00 95 1018.7
20260903034918 57 190 0.0 0.0 0.00 0.00 0.00 95 1018.5
20260903034819 57 190 0.0 0.0 0.00 0.00 0.00 95 1018.5
20260903034718 57 190 0.0 0.0 0.00 0.00 0.00 95 1018.5
20260903034618 57 190 0.0 0.0 0.00 0.00 0.00 95 1018.7
20260903034601 57 187 0.0 2.0 0.00 0.00 0.00 94 1018.5
20260903034552 57 189 0.0 0.0 0.00 0.00 0.00 94 1018.4
20260903034536 57 186 0.0 2.0 0.00 0.00 0.00 94 1018.5
20260903034521 57 187 0.0 2.0 0.00 0.00 0.00 94 1018.4
20260903034503 57 187 0.0 2.0 0.00 0.00 0.00 94 1018.5
20260903034239 57 187 0.0 2.0 0.00 0.00 0.00 94 1018.4
20260903033918 58 187 0.0 2.0 0.00 0.00 0.00 94 1018.7
20260903033818 58 186 0.0 2.0 0.00 0.00 0.00 94 1018.4
20260903033718 58 185 0.0 2.0 0.00 0.00 0.00 94 1018.0
20260903033618 58 185 0.0 2.0 0.00 0.00 0.00 94 1018.3
20260903033521 58 184 1.0 2.0 0.00 0.00 0.00 94 1018.9
20260903033511 57 153 1.0 1.0 0.00 0.00 0.00 95 1018.5
20260903033501 58 160 0.0 1.0 0.00 0.00 0.00 94 1018.4
20260903033445 58 174 1.0 1.0 0.00 0.00 0.00 95 1018.7
20260903033428 57 153 1.0 1.0 0.00 0.00 0.00 95 1018.5
20260903033118 57 177 0.0 1.0 0.00 0.00 0.00 94 1018.3
20260903033020 58 158 1.0 1.0 0.00 0.00 0.00 94 1018.2
20260903032918 58 177 0.0 1.0 0.00 0.00 0.00 94 1018.1
20260903032818 58 186 0.0 1.0 0.00 0.00 0.00 94 1018.2
20260903032718 58 186 0.0 1.0 0.00 0.00 0.00 94 1018.4
20260903032618 58 185 0.0 1.0 0.00 0.00 0.00 94 1018.4
20260903032553 58 189 0.0 1.0 0.00 0.00 0.00 94 1018.4
20260903032537 58 186 0.0 1.0 0.00 0.00 0.00 94 1018.4
20260903032218 58 181 0.0 1.0 0.00 0.00 0.00 93 1018.5
20260903032146 58 186 0.0 1.0 0.00 0.00 0.00 93 1018.3
20260903032130 58 182 0.0 1.0 0.00 0.00 0.00 93 1018.3
20260903032114 58 190 0.0 1.0 0.00 0.00 0.00 93 1018.7
20260903032058 58 186 0.0 1.0 0.00 0.00 0.00 93 1018.4
20260903032034 58 165 0.0 1.0 0.00 0.00 0.00 93 1018.7
20260903032018 58 191 0.0 0.0 0.00 0.00 0.00 93 1018.8
20260903031218 58 190 0.0 1.0 0.00 0.00 0.00 93 1018.5
20260903031118 58 189 0.0 1.0 0.00 0.00 0.00 93 1018.9
20260903031018 58 189 0.0 1.0 0.00 0.00 0.00 92 1018.8
20260903030918 58 189 0.0 1.0 0.00 0.00 0.00 92 1018.8
20260903030902 58 188 0.0 1.0 0.00 0.00 0.00 92 1018.4
20260903030838 58 191 0.0 1.0 0.00 0.00 0.00 92 1018.7
20260903030518 58 186 0.0 1.0 0.00 0.00 0.00 92 1018.7
20260903030418 58 192 0.0 2.0 0.00 0.00 0.00 92 1018.7
20260903030319 58 192 0.0 2.0 0.00 0.00 0.00 92 1018.7